ECMWFFLT2_sfc_thetae_000.txt.gz
Theta_e
323 323 323 323 323 323 324 323 323 324 324 324 324 323 322 320 318 317 317 317 318 319 319 318 318 318 320 320 320 320 320 320 320 320 319 319 317 316 316 316 316 316 316 316 315 314 313 312 312 310 308 301
321 322 322 322 321 321 321 322 323 322 322 322 322 320 319 317 316 315 315 314 314 317 317 317 317 317 318 319 319 318 319 319 318 318 318 317 315 314 314 314 314 314 314 314 313 312 311 310 309 308 306 299
316 320 320 320 320 320 320 321 320 320 320 318 317 317 316 315 314 313 312 312 312 312 313 313 313 315 317 317 317 317 317 317 317 316 315 315 314 313 312 312 312 312 312 312 311 310 310 308 306 305 302 299
307 316 318 318 318 318 318 318 318 317 315 314 313 312 312 310 308 308 306 307 306 309 311 311 310 312 314 315 314 315 315 315 315 314 313 313 312 311 310 309 309 309 310 310 310 309 308 306 304 298 297 297
304 309 315 315 316 316 316 315 315 314 313 312 311 309 308 304 298 298 299 299 300 305 303 306 310 310 311 311 312 312 313 313 313 313 312 310 310 309 307 306 305 305 307 308 308 307 306 303 297 297 297 297
304 306 309 304 306 306 310 311 311 307 302 307 301 306 302 297 298 295 295 299 305 301 303 302 308 308 309 309 308 310 311 311 311 311 310 309 307 306 305 302 295 296 301 303 304 303 302 297 296 297 297 296
303 303 301 300 301 302 305 304 302 298 301 297 297 299 298 299 295 294 296 297 300 302 306 304 306 306 306 305 304 305 307 307 308 309 308 306 305 303 301 294 293 293 293 294 299 299 296 295 295 296 296 296
301 300 299 298 298 299 298 299 299 297 297 296 295 296 296 296 295 295 295 305 305 303 296 299 304 303 303 303 302 300 297 300 302 302 303 303 301 298 295 292 292 292 292 292 293 293 293 294 294 294 295 295
299 297 296 296 296 296 296 296 295 295 295 294 294 294 296 294 295 294 295 294 293 292 292 291 291 292 291 291 291 297 289 290 291 292 290 291 293 291 292 291 291 292 292 293 293 292 293 293 293 294 294 294
298 296 294 294 294 294 294 295 294 295 295 294 293 294 295 296 294 293 293 292 292 292 292 291 290 290 290 289 289 293 288 289 289 289 289 290 291 290 291 291 291 291 293 292 292 292 292 293 293 293 293 292
296 294 293 293 294 294 294 294 294 294 294 294 293 293 295 294 292 292 292 291 291 291 291 291 290 289 289 288 288 291 288 288 288 288 289 289 289 290 290 290 290 290 291 291 291 291 292 292 292 292 292 292
294 294 294 294 297 295 296 295 294 294 294 294 293 293 294 294 292 292 291 291 291 290 290 290 290 289 288 288 288 290 289 288 287 288 288 289 289 289 289 289 289 290 290 290 290 290 291 291 291 291 291 291
295 295 295 294 294 294 298 295 294 293 294 293 292 293 294 293 291 291 291 291 291 290 290 290 289 288 288 287 287 288 288 288 287 287 287 288 288 288 288 288 288 290 289 289 289 290 290 289 290 290 290 290
295 296 295 294 295 294 298 294 294 293 292 292 292 291 292 292 291 291 291 291 290 289 289 288 289 288 287 287 287 287 287 288 287 287 287 287 288 288 287 287 288 288 288 288 289 288 289 289 289 289 289 289
295 296 295 295 295 295 296 294 294 293 292 291 291 291 292 292 292 291 290 290 289 289 288 288 288 287 287 286 286 287 286 288 288 287 287 287 287 287 286 287 287 288 287 287 287 288 288 288 288 289 289 289
295 295 295 295 295 295 295 294 293 292 291 292 290 290 291 291 291 292 290 290 289 289 288 288 287 287 286 286 286 287 286 287 287 287 286 287 287 287 286 286 287 288 286 286 286 287 287 288 288 288 288 288
295 295 295 295 295 295 295 294 293 291 291 291 291 290 290 290 291 291 290 289 290 291 288 288 287 286 287 286 286 286 287 287 285 286 286 286 287 287 286 286 286 288 286 285 286 286 287 287 287 288 287 288
294 294 295 295 294 295 294 293 292 292 290 291 291 290 290 290 291 290 289 289 289 288 288 287 287 286 286 285 286 286 286 285 285 285 285 286 285 288 286 285 285 285 285 285 285 286 286 286 286 287 287 287
294 294 294 294 293 293 293 292 292 291 290 290 290 290 289 290 291 290 289 289 289 288 288 287 286 286 285 286 286 285 286 284 284 285 285 285 284 284 284 284 287 285 284 284 285 286 286 286 287 287 287 287
294 294 294 293 294 293 292 292 291 290 291 290 290 289 289 289 290 290 289 289 288 287 287 286 286 286 286 286 285 285 285 285 284 285 285 285 284 284 284 285 283 284 284 284 285 285 286 286 287 287 287 287
293 293 293 293 293 293 292 291 290 290 290 290 290 289 288 289 290 289 289 288 288 288 287 286 286 285 286 286 285 284 284 284 285 284 285 285 287 284 283 283 283 283 284 284 285 285 285 286 287 286 286 286
293 293 293 292 292 293 291 291 290 290 290 290 289 288 288 289 290 289 288 288 287 287 286 286 286 285 285 285 284 284 283 283 284 284 284 284 284 284 283 282 282 283 283 285 285 285 285 285 285 285 286 286
293 292 291 290 291 290 290 290 289 289 289 289 289 288 288 289 289 289 288 288 287 286 286 285 285 285 285 285 284 284 283 283 285 285 283 283 282 284 283 282 283 283 283 284 284 284 284 285 285 286 286 287
291 290 290 289 288 289 289 289 289 289 289 289 289 289 288 289 288 288 288 287 287 287 286 285 285 285 285 284 284 283 283 282 283 283 282 282 282 281 284 284 283 283 283 283 282 284 284 284 285 284 285 284
290 290 289 289 290 290 290 289 289 289 289 289 289 289 288 288 288 288 288 287 286 286 287 285 285 285 284 284 284 284 283 283 282 283 283 284 285 282 282 282 282 283 283 282 281 282 282 283 284 285 286 284
291 292 292 291 291 291 290 289 289 288 288 289 289 289 288 288 288 287 287 287 286 286 286 285 284 284 284 284 284 284 284 283 286 284 283 282 281 282 281 281 282 284 282 279 279 279 279 280 282 284 284 283
292 292 292 292 290 291 289 289 290 289 288 289 288 288 288 288 287 287 287 287 287 286 285 285 284 284 284 284 285 284 283 283 283 282 282 282 281 280 281 282 283 282 282 279 280 279 279 276 279 282 280 281
292 292 291 289 289 289 288 287 288 287 287 287 287 287 288 288 288 287 287 287 286 286 285 285 284 284 283 284 284 283 283 282 282 282 281 281 282 281 280 279 280 283 281 280 279 276 277 277 277 275 276 279
291 290 288 287 287 287 286 286 285 285 284 286 287 288 286 287 287 287 287 286 286 286 285 284 284 284 284 283 283 283 282 282 282 282 282 282 282 280 280 279 279 280 282 281 282 279 277 276 275 275 276 279
291 290 288 287 286 285 285 285 285 285 286 285 286 287 288 287 287 287 286 286 286 285 285 284 284 283 283 283 283 283 282 282 281 281 281 281 281 280 280 279 279 278 281 282 283 281 280 279 276 276 278 277
291 289 289 289 288 288 287 287 287 288 288 287 287 288 287 287 287 287 286 285 285 285 285 284 283 283 283 283 283 283 282 281 281 281 281 282 281 281 283 281 278 279 278 278 279 281 281 281 281 280 278 275

ECMWFFLT2_sfc_thetae_003.txt.gz
Theta_e
330 331 331 330 331 330 330 329 330 329 329 328 328 328 328 327 325 325 324 324 323 323 322 322 322 322 323 323 323 323 323 323 323 321 319 319 318 318 318 319 319 318 317 315 314 313 312 311 310 309 304 298
328 329 329 328 329 328 328 328 328 328 327 327 327 326 324 323 322 323 323 323 322 321 320 320 321 321 321 322 322 321 320 320 320 318 318 317 317 316 316 317 316 316 315 314 312 311 310 309 308 307 304 296
319 324 326 327 326 326 326 326 326 326 325 325 324 323 320 319 319 319 320 321 321 319 318 318 319 320 320 320 320 320 319 319 319 317 316 315 315 314 314 314 315 314 313 312 311 310 309 307 305 304 300 296
310 320 321 323 324 324 324 324 325 325 324 323 321 320 318 316 312 312 312 315 314 316 315 315 315 318 319 319 319 319 318 317 317 316 315 314 313 312 311 311 311 311 311 310 309 308 307 304 302 296 295 295
308 312 319 319 320 321 322 323 323 322 320 317 316 314 313 309 301 300 301 303 304 310 304 313 314 316 317 317 316 317 317 316 315 314 313 312 311 310 308 305 305 306 308 308 307 306 304 301 295 295 295 295
306 309 315 308 309 310 316 318 318 313 307 310 303 310 304 297 299 296 295 298 306 301 304 307 312 312 314 314 314 314 315 315 314 312 311 310 308 307 305 302 293 294 300 303 303 302 300 294 293 294 294 294
305 305 305 303 303 305 311 309 305 303 304 299 298 296 295 297 295 294 295 296 299 301 308 306 309 309 310 310 309 310 311 312 312 310 308 307 306 304 301 292 291 291 291 291 298 297 293 292 292 293 293 293
303 303 302 302 301 302 302 301 300 298 298 297 296 295 295 293 294 294 294 304 306 306 300 303 306 306 306 304 302 301 298 303 304 305 305 303 301 298 295 290 290 291 290 290 291 291 291 291 291 292 292 291
301 301 300 300 299 299 297 297 296 296 295 295 295 295 295 293 294 293 295 294 293 292 291 289 290 290 290 290 292 296 288 288 291 291 288 289 292 289 291 290 289 290 290 290 290 290 291 291 290 291 291 290
302 301 299 298 297 296 296 296 294 295 294 294 294 294 294 295 293 293 292 290 290 290 290 289 288 288 288 288 289 291 287 287 288 287 288 288 289 289 289 289 289 290 291 289 289 289 289 290 289 290 289 289
300 298 298 297 296 295 294 294 294 294 294 293 293 294 295 293 291 291 290 290 290 289 289 289 288 287 288 288 287 289 287 287 287 287 287 287 288 288 288 288 288 288 288 288 288 288 288 289 288 288 288 288
298 297 295 295 298 296 295 294 293 293 293 293 292 293 294 293 291 291 290 290 289 289 288 288 288 288 287 287 287 288 287 287 286 286 286 287 287 287 287 287 287 287 288 287 287 288 287 287 288 288 288 288
297 295 294 294 294 294 297 294 293 294 293 292 292 293 294 293 291 290 290 289 289 288 288 288 287 287 286 287 286 287 286 286 286 286 286 287 286 286 286 286 288 287 287 287 287 287 287 287 287 287 287 288
294 294 293 293 293 293 296 293 293 293 293 292 291 292 293 293 291 291 290 289 288 288 288 287 287 287 286 285 286 286 286 286 285 285 285 286 286 286 285 286 289 286 286 286 286 286 286 286 287 287 287 287
294 294 293 293 292 293 294 293 293 293 292 291 291 292 292 292 292 291 290 289 288 287 287 287 287 286 286 284 285 285 285 286 285 285 285 285 285 285 286 286 286 286 286 285 285 286 286 286 286 286 287 287
293 293 293 293 292 292 293 294 293 292 291 292 290 291 291 291 291 292 289 289 288 288 287 287 286 285 285 284 284 285 285 286 285 285 285 286 285 285 285 285 286 287 285 284 285 285 285 286 286 286 286 286
293 293 293 293 292 292 294 293 292 291 291 291 290 290 291 290 290 291 290 289 289 290 287 286 286 285 286 285 285 285 285 285 284 284 285 285 286 285 285 285 285 286 284 284 284 285 285 285 285 286 286 286
294 293 294 294 293 293 293 293 292 292 291 291 290 290 290 290 290 291 290 289 288 288 286 286 286 285 284 284 284 285 285 284 284 284 284 284 285 288 285 284 284 283 284 283 284 284 285 285 285 285 286 286
295 294 294 294 293 293 293 293 292 291 290 290 290 289 289 290 290 290 289 289 288 287 286 286 285 285 284 284 285 284 284 284 283 284 284 284 284 283 283 283 285 283 283 283 284 284 285 285 285 285 286 286
296 294 294 294 295 293 293 292 292 291 290 290 289 289 289 289 290 289 289 288 288 287 286 286 285 285 284 284 284 284 284 284 284 284 284 284 283 282 283 283 282 283 283 283 284 284 284 284 286 285 285 285
295 294 293 293 293 293 293 292 292 291 290 289 289 289 288 289 290 289 288 288 288 287 286 286 285 284 284 285 283 283 283 283 284 284 284 283 284 282 281 282 282 282 283 284 284 284 284 284 285 284 284 285
294 293 293 293 292 293 292 292 291 290 290 289 289 288 288 289 290 289 288 288 287 286 286 285 285 284 284 284 283 283 283 283 283 283 283 282 282 282 282 282 282 283 283 284 284 283 283 283 283 284 284 285
293 292 291 290 290 291 291 290 289 289 289 289 288 288 288 288 289 289 288 287 287 286 286 285 284 284 284 284 283 283 282 282 283 283 281 282 281 283 283 282 282 282 283 283 283 283 283 283 283 283 284 285
291 291 291 290 289 289 290 289 289 289 290 289 288 289 288 288 288 288 288 287 286 286 286 285 284 284 284 283 283 283 282 282 282 282 281 281 282 282 283 283 282 282 282 282 281 283 283 282 282 282 285 284
291 290 289 289 290 290 290 290 289 289 289 289 289 288 288 288 288 288 287 287 286 286 287 285 284 284 283 283 283 283 283 282 282 282 282 283 283 282 281 282 282 282 281 280 280 280 281 282 282 285 284 282
292 292 292 291 291 291 291 290 289 289 288 289 289 288 288 288 288 287 287 287 286 286 285 284 284 284 283 283 283 283 282 281 285 282 282 282 280 281 280 280 281 283 279 279 278 278 279 281 282 284 282 282
292 292 292 292 291 292 290 290 290 289 289 289 288 288 287 288 287 287 286 287 286 286 285 285 284 284 283 283 284 283 282 282 282 281 281 281 281 280 281 281 282 281 280 278 279 279 278 277 278 282 280 280
293 292 291 289 290 289 288 287 288 288 287 287 287 287 287 287 287 287 287 286 286 286 285 284 284 283 283 283 284 283 282 282 282 281 281 280 281 281 280 278 280 282 280 279 279 276 278 276 277 276 277 278
292 291 289 288 288 288 287 287 286 285 284 287 287 287 286 287 287 287 287 286 286 286 285 284 284 283 283 283 283 283 282 282 282 281 281 282 281 279 279 279 278 280 280 280 281 278 277 276 276 276 276 278
292 291 290 288 287 287 286 285 285 286 286 285 286 287 287 286 287 287 286 286 286 285 285 284 283 283 283 282 283 282 282 282 281 281 281 281 281 280 279 279 278 278 281 281 282 279 278 278 276 275 277 277
292 290 290 290 290 290 289 288 287 289 289 288 288 288 287 287 286 286 286 285 285 285 285 284 283 283 283 283 282 283 281 281 281 281 281 281 280 280 282 280 278 279 278 279 280 280 279 281 280 279 276 275

ECMWFFLT2_sfc_thetae_006.txt.gz
Theta_e
334 336 336 337 337 337 336 336 334 334 332 332 331 331 331 330 328 327 327 327 327 327 327 327 327 325 325 325 325 325 326 325 324 324 322 321 321 321 320 320 319 318 317 315 314 313 312 310 309 306 302 296
330 332 334 335 335 335 335 334 333 332 331 330 330 329 329 328 327 326 326 326 326 326 326 326 326 325 325 326 326 326 324 323 322 321 320 320 320 320 319 318 317 317 315 314 312 311 310 309 307 305 302 295
323 327 330 332 332 332 333 333 332 331 330 330 329 328 327 326 325 325 325 324 324 324 323 323 324 325 325 324 324 324 322 321 320 319 319 318 318 317 317 317 316 315 314 312 310 309 308 305 303 302 298 294
314 323 324 327 329 329 330 330 329 329 328 327 325 325 323 321 318 318 317 319 317 321 321 322 318 322 323 323 323 322 321 320 319 318 317 316 314 313 313 314 313 313 312 311 309 308 305 303 300 294 293 293
310 315 322 322 324 325 326 326 327 327 324 321 320 317 315 311 305 304 307 307 306 314 307 316 317 321 322 322 321 320 320 319 318 317 316 314 312 311 309 307 307 308 309 308 308 306 302 299 292 293 292 292
308 310 318 313 315 315 320 321 321 319 313 314 309 312 307 301 303 300 300 302 309 303 306 309 315 318 320 320 319 318 318 317 316 315 314 312 311 309 306 302 292 294 300 304 304 302 299 292 291 291 291 291
308 309 309 308 311 312 315 314 311 308 308 304 304 301 299 299 297 297 298 299 302 303 310 308 313 316 317 317 317 317 316 315 314 313 312 310 308 305 302 292 290 290 289 291 297 296 292 290 290 290 290 291
307 307 307 308 308 309 309 307 305 303 301 301 299 298 297 295 295 296 297 306 308 308 301 305 310 311 311 310 308 307 305 310 311 310 309 305 302 297 293 289 290 290 289 289 290 290 290 289 289 290 290 289
305 305 304 305 305 305 304 303 302 301 299 297 296 295 295 293 294 294 297 297 297 294 294 292 291 291 291 291 292 296 288 289 292 290 288 290 292 289 290 289 289 290 289 290 289 289 289 289 289 288 289 288
305 304 304 303 303 303 301 301 300 298 297 295 294 294 293 295 293 295 295 294 293 291 290 289 288 288 287 288 289 291 287 287 288 288 288 289 289 288 288 288 288 289 290 288 288 288 288 288 288 287 287 287
303 303 303 303 301 302 300 298 298 297 296 294 293 293 294 293 293 293 292 292 290 289 289 288 287 286 286 286 287 288 287 287 287 287 287 287 287 287 287 287 287 287 287 287 287 287 287 287 287 287 287 287
302 302 301 301 302 301 300 298 297 296 295 294 293 293 293 293 292 292 291 291 289 288 287 288 287 286 286 286 286 287 287 287 286 286 286 287 286 287 286 287 286 286 287 286 286 286 286 286 286 286 286 287
301 300 299 299 299 299 301 297 296 295 294 293 293 293 293 293 292 290 291 290 289 288 288 287 287 285 285 286 286 287 286 286 286 286 286 287 286 285 285 286 286 286 286 285 285 286 286 286 286 286 286 286
300 300 299 298 298 298 299 296 294 293 293 293 292 292 292 293 292 291 290 290 288 288 287 286 286 286 285 285 286 286 286 286 285 285 285 285 285 285 285 286 288 286 285 285 285 286 286 286 286 285 286 286
301 299 299 298 297 296 296 295 293 293 293 292 292 293 292 292 292 291 290 289 288 287 287 286 286 285 284 284 285 285 285 285 285 285 285 285 284 285 285 285 286 285 285 284 285 285 285 285 286 286 286 286
300 299 298 297 296 295 295 294 292 292 292 293 291 292 292 291 291 291 289 289 288 288 287 286 285 284 284 284 284 285 285 285 285 285 284 284 284 284 285 285 285 285 284 284 284 284 285 285 285 285 285 285
300 299 297 296 295 295 294 293 292 292 292 292 291 291 292 291 291 291 290 289 289 290 286 286 285 284 285 284 285 284 284 285 284 284 285 285 285 284 284 284 284 285 284 284 284 284 285 285 285 285 285 285
299 298 296 296 294 294 293 293 292 292 292 292 291 291 291 291 291 291 289 289 288 288 287 286 285 284 284 283 284 285 285 284 283 284 284 284 285 288 284 283 283 283 284 283 283 284 284 283 284 284 285 285
299 297 296 295 293 292 293 292 292 292 291 291 290 290 291 290 291 290 289 289 289 287 287 286 285 284 283 284 284 284 283 283 282 283 284 284 283 282 283 283 285 283 283 283 284 284 284 284 285 284 284 284
298 296 295 294 294 292 292 292 292 291 291 291 290 290 290 290 290 290 289 289 288 287 286 286 286 284 284 284 284 284 283 283 283 283 284 284 282 282 283 283 282 282 282 283 284 283 283 283 286 283 283 284
297 295 293 293 292 291 291 292 292 291 290 290 290 289 289 290 290 289 289 288 288 288 286 286 286 284 284 284 283 283 282 283 284 283 284 283 284 281 281 282 282 282 282 283 283 283 282 283 284 283 283 285
297 295 293 292 292 292 291 291 291 290 290 289 289 289 289 289 290 289 289 288 288 287 287 286 285 284 283 284 283 282 282 282 282 282 282 282 281 281 282 281 281 282 282 283 283 283 282 282 282 283 283 286
295 293 291 290 291 290 290 290 290 290 289 289 289 289 289 289 290 290 288 288 288 287 287 285 285 284 283 284 282 282 282 282 282 282 281 281 281 282 281 282 281 282 282 282 282 283 282 282 282 282 285 284
293 292 291 290 289 289 290 290 290 289 290 289 289 290 289 289 289 289 289 288 287 287 287 285 285 284 283 283 283 282 282 282 282 282 281 281 282 282 283 282 281 281 281 281 280 283 281 282 282 284 284 283
293 292 290 290 290 291 291 290 290 290 290 290 290 289 289 289 289 289 288 288 287 286 287 285 284 284 283 283 283 282 283 282 282 282 281 283 283 281 280 280 280 281 281 280 280 279 280 282 282 285 283 281
294 294 293 292 291 292 291 290 290 289 290 290 290 289 289 289 288 288 288 288 287 287 286 285 284 284 283 283 283 282 282 281 284 283 282 282 279 280 279 280 280 281 279 279 278 279 280 280 280 283 281 281
294 294 294 293 292 292 290 290 290 290 289 289 289 288 288 288 288 288 287 287 287 286 286 285 285 284 284 283 283 283 281 282 282 282 282 281 281 280 280 281 281 280 279 279 278 279 278 277 278 283 279 280
294 293 291 289 290 290 289 288 289 287 287 287 287 287 287 287 288 287 287 287 287 287 286 285 285 284 283 283 283 283 282 282 282 281 281 281 281 282 280 278 280 281 279 279 279 279 278 276 278 279 278 277
292 291 289 288 288 288 287 287 286 286 285 287 287 287 286 287 287 287 287 287 287 287 286 285 285 284 284 283 283 283 282 282 283 282 282 282 281 280 281 279 278 280 280 279 281 280 277 276 279 277 277 277
292 292 290 288 288 287 287 286 286 287 287 285 287 288 288 287 288 288 287 287 287 287 286 285 285 284 284 283 283 283 282 282 281 281 281 281 281 279 279 280 279 278 281 280 280 279 277 278 278 277 275 276
292 291 291 290 290 290 289 289 288 290 289 288 289 289 288 287 287 287 287 286 286 286 286 285 285 284 284 283 283 283 282 281 282 282 282 282 280 280 281 280 279 280 279 279 279 279 279 281 279 278 277 275

ECMWFFLT2_sfc_thetae_009.txt.gz
Theta_e
336 337 339 340 341 341 340 340 340 340 339 337 335 335 333 334 333 332 329 329 328 328 328 328 328 329 329 329 328 329 329 329 328 327 326 325 324 324 323 321 320 319 317 316 314 313 312 311 309 306 303 304
332 334 337 338 338 338 338 338 339 338 337 335 335 334 332 331 330 329 328 328 328 328 328 328 327 328 328 328 328 327 327 327 326 324 325 324 323 323 322 320 319 317 316 314 313 312 311 309 307 304 303 302
333 329 333 334 335 336 336 336 337 336 334 333 333 332 330 328 326 326 327 327 327 327 328 327 326 326 327 327 327 327 326 325 324 324 324 323 323 322 320 319 318 316 314 312 311 310 308 306 303 302 301 301
328 328 327 330 332 333 334 334 334 333 330 329 327 327 326 324 324 323 325 321 325 326 327 326 324 327 327 328 327 325 325 324 323 323 322 322 321 321 319 318 316 314 312 311 309 308 305 302 300 300 300 300
324 327 325 326 326 327 329 330 330 330 325 323 322 323 321 320 324 324 324 324 325 321 325 319 319 326 326 326 325 323 323 323 322 321 320 319 319 317 316 314 313 312 311 309 307 305 301 298 298 298 299 299
321 324 326 327 329 329 329 325 324 327 328 320 326 319 320 319 317 317 316 318 317 319 320 320 317 321 324 324 323 322 322 321 320 319 317 316 313 311 307 303 301 302 305 305 304 301 298 297 297 297 297 298
319 321 324 323 324 324 322 323 324 325 322 321 320 318 315 314 314 313 313 314 314 315 314 319 316 320 323 322 321 320 320 319 319 318 316 313 310 307 303 299 299 298 298 299 298 296 297 297 296 296 297 297
318 319 320 321 321 322 323 323 320 320 318 316 314 312 311 310 310 310 310 310 310 311 316 317 315 316 317 317 315 316 317 317 316 314 312 309 306 300 298 298 298 298 297 297 297 297 296 296 296 296 296 296
316 317 317 318 318 319 319 318 316 315 314 312 310 309 308 307 307 307 308 310 311 310 310 310 309 308 307 307 306 303 302 301 300 299 299 299 298 298 298 298 297 298 297 297 296 296 295 295 295 295 295 295
315 314 315 315 316 316 315 315 313 312 311 309 307 306 304 304 305 305 306 307 306 305 306 305 304 302 301 302 300 299 297 296 296 296 297 297 297 296 296 296 297 297 297 296 295 295 295 295 294 295 294 294
313 313 315 314 313 314 313 312 311 310 309 307 305 304 303 303 303 304 304 303 303 302 302 302 300 298 298 298 297 296 296 295 295 296 296 296 296 295 296 295 295 295 294 295 295 294 294 294 294 294 294 294
312 313 312 312 310 313 311 309 310 309 307 305 303 302 302 302 302 302 302 302 301 300 299 299 297 296 295 296 295 295 295 295 295 295 295 295 295 295 295 294 294 294 293 293 294 294 294 293 293 293 293 294
311 311 311 310 310 310 309 309 309 308 305 303 302 301 301 301 300 301 301 300 300 297 298 296 294 294 294 294 294 294 294 295 295 294 294 294 294 294 294 294 294 293 293 293 293 293 293 293 293 293 293 294
309 309 309 309 309 310 308 308 307 305 303 302 300 299 300 299 300 299 299 299 297 296 296 294 293 293 293 293 293 294 294 294 294 294 293 293 294 294 294 294 294 293 293 292 292 292 292 292 292 293 293 293
309 308 308 308 309 308 307 307 305 303 303 301 299 299 299 298 299 298 298 298 296 296 295 293 293 292 292 293 293 293 293 293 294 293 293 294 293 293 293 294 293 292 292 292 292 292 292 292 292 293 293 293
308 307 308 308 307 306 307 305 303 302 302 300 298 298 298 298 297 297 297 297 295 295 294 293 292 292 292 292 292 293 293 293 293 293 292 292 292 292 293 292 292 291 291 291 291 292 291 292 292 292 293 293
308 308 307 307 306 306 305 303 302 301 301 300 298 297 297 297 297 297 296 296 295 295 294 293 292 291 292 292 292 292 293 293 293 293 292 292 292 291 291 291 291 291 290 291 291 291 291 292 292 292 293 293
308 307 306 306 305 304 303 302 301 300 300 300 298 297 297 296 296 296 296 296 295 295 293 292 292 292 291 291 291 292 292 292 292 292 292 291 291 291 291 291 291 290 291 290 290 291 291 292 292 292 292 292
307 307 306 305 304 303 302 301 301 300 299 299 298 297 296 296 296 296 295 295 295 294 293 292 291 291 290 291 291 291 291 291 291 292 291 291 291 291 290 291 291 291 291 291 290 291 291 291 291 292 292 292
307 306 305 304 303 302 301 300 300 299 298 298 297 296 296 296 296 296 295 294 295 293 293 292 291 290 290 290 291 290 290 291 290 291 291 291 290 289 290 290 291 291 291 291 290 290 290 291 291 291 292 292
306 306 304 303 302 300 300 299 299 298 297 297 296 295 296 296 295 295 294 294 294 294 293 292 291 289 289 290 290 290 290 291 290 290 290 290 289 290 291 291 291 290 290 290 289 290 290 290 291 291 292 291
305 304 303 301 300 299 297 298 298 297 296 295 295 295 295 296 295 295 294 294 294 294 293 292 291 289 289 290 289 289 290 290 290 290 290 289 289 288 290 290 291 290 290 290 289 289 289 290 290 291 291 291
304 303 300 298 297 297 296 296 297 296 294 295 295 294 295 295 295 295 294 294 293 293 292 292 290 289 289 289 289 289 289 289 289 289 289 289 288 288 288 290 290 290 290 289 289 288 288 289 290 290 290 290
302 299 297 295 294 294 294 295 294 294 294 294 294 294 294 295 295 295 294 293 293 293 292 291 290 289 289 289 289 289 288 288 288 288 288 288 289 289 289 288 289 289 289 288 288 288 288 289 290 290 289 289
300 297 296 296 294 294 294 294 294 294 294 294 294 294 294 294 294 295 294 293 293 293 292 291 290 289 288 289 289 289 289 289 289 289 288 288 289 289 289 289 287 288 290 289 286 288 288 288 289 290 289 288
300 299 298 296 295 296 295 294 293 293 293 293 294 294 294 294 294 294 294 293 293 292 292 290 289 289 288 288 288 289 289 288 289 288 287 288 288 287 289 289 288 287 289 290 289 286 286 287 289 290 288 288
299 299 299 298 298 297 296 296 295 295 294 294 293 293 294 293 294 294 293 293 292 292 291 290 290 289 288 288 288 287 287 287 287 287 287 288 288 286 288 288 287 287 288 291 289 290 288 285 286 288 287 288
299 299 299 297 296 297 296 294 294 294 293 293 293 292 292 293 293 293 293 292 292 292 291 291 290 289 288 288 288 288 287 287 287 287 286 287 288 289 287 287 287 288 286 287 290 288 289 285 287 285 286 287
298 297 295 294 293 294 293 293 293 292 291 292 292 292 291 291 292 292 292 292 292 292 291 291 290 289 289 288 288 288 287 287 287 287 287 287 287 288 290 286 288 286 286 286 284 291 285 285 286 288 287 285
296 296 294 292 292 291 291 290 290 290 290 290 290 290 291 291 291 292 292 292 292 292 291 291 290 290 289 288 287 287 287 287 287 287 286 287 287 287 289 289 287 286 286 285 287 287 287 293 296 289 285 286
296 295 295 294 294 294 292 292 292 293 294 292 292 293 291 291 291 292 292 291 291 292 292 291 290 290 289 288 287 287 287 286 287 287 287 287 286 288 287 288 288 287 286 286 286 286 287 286 284 289 287 286

ECMWFFLT2_sfc_thetae_012.txt.gz
Theta_e
339 341 342 343 344 344 344 344 344 344 343 343 342 342 341 340 339 338 337 333 332 331 330 330 329 329 330 330 331 329 330 330 330 329 328 326 325 324 323 322 321 319 318 317 315 314 312 310 309 309 312 315
335 337 339 340 340 341 341 341 342 342 342 342 341 339 338 337 336 335 336 334 331 330 330 329 329 329 330 330 330 330 330 329 329 327 326 326 324 323 322 321 319 318 316 315 313 311 310 308 307 307 309 312
340 330 334 336 337 338 338 339 339 340 338 337 337 335 333 329 329 330 330 332 331 330 330 329 330 329 330 330 330 330 329 329 328 326 326 325 324 323 321 320 319 317 315 313 311 309 307 306 305 305 310 310
339 332 327 331 333 334 335 336 336 336 333 331 329 329 326 324 327 325 327 322 327 328 329 327 326 328 329 329 329 329 328 327 327 326 325 324 323 322 320 318 316 314 313 311 310 308 306 304 305 306 305 308
338 338 327 328 328 329 331 332 332 333 327 324 323 324 321 321 330 330 330 329 328 323 329 322 320 327 328 328 328 327 327 326 326 326 325 324 322 321 318 316 314 312 311 310 309 306 304 303 305 306 306 307
338 339 332 337 338 338 335 329 327 333 336 326 335 322 327 331 330 330 330 328 323 327 326 324 318 323 328 327 327 326 325 325 325 324 323 322 320 317 314 311 311 308 306 306 305 303 303 305 304 305 305 306
337 337 336 337 337 337 331 334 335 337 335 334 334 332 331 329 330 330 328 328 325 325 321 323 317 321 326 326 325 324 323 323 323 321 320 317 315 311 307 308 307 307 306 303 300 303 305 304 304 305 306 305
335 335 335 335 335 335 335 336 336 336 335 334 334 332 331 329 329 328 328 317 315 318 325 323 317 319 321 322 321 320 321 321 320 318 316 312 308 305 308 306 304 304 304 304 304 304 303 303 304 305 304 304
331 333 333 333 333 333 333 334 334 334 334 334 333 331 329 329 327 327 326 324 324 324 324 323 324 324 323 323 322 317 321 320 318 315 312 306 304 305 305 304 304 304 303 303 303 303 302 302 304 303 303 303
332 330 331 331 331 331 332 332 333 332 332 331 330 329 327 325 325 325 324 323 323 323 322 322 322 322 322 321 320 318 318 316 314 310 307 305 304 304 304 304 305 304 302 303 302 301 303 302 302 303 302 302
330 330 331 331 331 331 330 330 331 329 329 328 328 327 324 324 324 323 322 321 321 320 320 320 320 320 319 319 317 316 314 311 309 305 304 303 304 303 303 303 303 303 303 303 303 302 302 302 302 302 302 302
328 329 330 330 329 329 329 329 329 328 327 327 324 324 323 323 323 322 320 319 319 318 318 318 318 318 317 316 314 312 311 308 305 303 304 304 304 303 303 303 302 301 301 302 303 302 302 302 301 302 301 301
327 328 328 328 328 328 325 327 328 328 326 324 323 322 321 322 321 321 319 318 317 317 316 316 315 314 314 313 311 309 307 305 303 302 302 303 302 302 301 301 301 301 301 301 301 301 301 302 301 302 302 302
325 326 326 327 327 327 326 326 327 327 324 323 321 319 319 319 321 320 318 316 316 314 314 313 313 312 312 310 309 307 305 303 302 302 302 303 303 302 301 301 300 300 300 300 300 300 301 301 301 301 301 302
324 324 325 325 326 326 325 326 326 324 324 322 320 319 317 317 318 318 317 315 314 312 312 311 310 310 309 308 306 305 303 302 303 302 302 302 301 300 300 300 299 299 299 299 299 300 301 301 301 301 301 301
322 323 323 324 324 324 325 325 323 323 322 319 319 317 315 316 315 315 315 314 312 311 310 309 308 308 307 307 305 303 303 301 302 302 303 303 302 302 301 299 298 300 298 299 299 300 300 301 300 300 300 300
321 322 322 322 323 323 323 322 323 322 320 319 318 316 315 314 314 313 313 312 311 309 309 308 306 305 305 305 303 302 302 302 302 301 300 300 300 299 300 299 298 299 299 298 298 299 299 300 300 300 300 300
320 321 321 321 322 322 321 321 320 320 320 318 317 315 314 313 312 310 311 310 309 308 307 306 305 304 303 303 302 301 301 299 299 299 299 299 298 298 297 298 297 296 297 297 298 298 299 300 299 299 299 299
319 320 320 319 320 320 319 320 319 319 318 317 315 314 313 312 310 309 309 309 308 306 305 304 303 302 302 302 301 300 299 299 299 300 300 298 297 297 297 298 297 298 298 297 298 298 298 298 298 299 298 299
318 319 319 319 316 318 318 318 317 317 316 316 315 312 312 311 310 309 308 307 307 305 304 303 302 301 301 301 299 299 299 300 299 299 300 299 299 296 296 297 296 298 297 298 297 298 298 298 298 298 298 298
318 318 318 317 317 317 316 316 315 315 315 314 313 311 310 309 308 308 307 306 305 304 303 302 302 300 300 300 299 299 299 298 299 300 300 298 298 298 296 296 297 297 297 297 297 297 297 298 297 298 298 298
316 317 317 316 315 314 314 314 314 314 313 312 312 310 309 308 307 306 306 305 304 303 303 302 301 300 299 298 299 298 298 298 299 299 299 296 297 298 296 295 296 295 297 297 297 296 296 296 297 297 297 297
316 315 315 315 314 312 312 312 312 312 311 311 310 309 309 307 306 305 305 304 303 302 302 301 301 299 299 298 298 298 297 298 298 298 298 297 295 296 297 296 296 296 297 297 296 295 295 296 296 297 296 296
313 313 312 311 311 310 309 310 309 310 309 309 308 308 307 307 305 304 303 303 302 302 301 300 300 298 298 297 297 297 297 296 296 297 297 297 296 294 294 297 298 297 296 295 295 294 294 295 295 295 295 296
311 311 310 310 309 308 309 308 308 307 308 307 307 307 306 306 305 304 303 302 302 301 300 300 300 298 297 297 297 296 297 297 297 297 297 296 295 294 293 294 296 297 297 294 292 293 293 293 294 293 293 293
310 311 311 309 309 308 308 307 305 305 306 305 305 305 305 305 305 304 302 301 301 300 300 299 298 297 296 296 296 297 298 298 297 297 297 296 294 296 293 292 295 297 295 293 292 290 290 291 291 292 292 292
309 311 311 309 309 308 307 307 307 306 305 304 303 303 303 303 303 303 302 301 300 300 300 299 298 297 296 296 296 296 297 297 296 296 296 295 294 293 295 294 295 296 298 293 295 294 292 289 288 290 290 292
309 310 310 309 307 307 307 305 305 304 303 302 302 301 302 302 302 302 302 301 300 300 300 299 298 297 296 295 296 296 295 295 295 295 295 295 295 294 292 293 291 296 296 297 295 290 293 292 291 288 288 289
307 307 306 306 305 305 304 303 302 302 301 301 301 301 300 300 301 301 301 301 300 299 299 299 298 297 296 295 296 296 295 295 295 295 295 295 295 294 292 292 291 292 296 295 299 295 291 289 289 292 293 291
305 305 304 303 302 301 301 300 300 299 299 300 299 299 300 300 300 300 300 300 300 299 299 299 298 298 297 296 295 295 295 295 296 295 295 295 296 294 295 294 293 291 293 295 297 295 297 299 294 294 293 291
304 304 303 303 302 302 301 300 301 301 301 300 300 300 299 299 299 299 299 299 299 299 299 299 299 298 297 296 295 295 295 295 295 295 295 295 295 295 296 296 292 292 291 292 292 294 295 296 291 299 293 290

ECMWFFLT2_sfc_thetae_015.txt.gz
Theta_e
341 343 344 345 346 346 347 347 347 347 347 347 345 346 345 344 342 341 341 338 335 333 333 331 331 331 332 331 331 331 331 330 330 329 329 328 326 325 324 323 322 320 319 317 315 313 312 312 313 313 318 318
337 340 342 343 343 344 344 346 346 346 346 345 345 343 342 339 338 339 340 338 336 333 332 331 330 330 330 331 330 329 330 329 329 328 328 326 325 324 323 322 320 319 317 315 313 312 311 310 310 312 315 315
343 333 337 340 340 341 342 342 343 343 341 340 340 339 336 334 332 333 333 335 334 333 332 331 332 330 330 330 329 329 329 329 328 328 327 326 325 324 322 321 319 317 315 313 312 310 309 308 309 308 313 313
341 335 329 334 336 336 338 338 338 338 336 335 333 333 331 328 331 328 330 324 329 329 330 328 326 330 329 329 329 329 328 328 327 327 326 326 324 323 322 320 317 315 313 311 310 308 307 308 308 311 308 311
340 341 330 329 330 331 332 334 334 335 330 327 326 327 322 323 335 334 333 330 331 323 329 322 321 328 329 328 329 329 328 327 327 327 326 325 324 322 320 317 314 313 312 310 308 307 307 307 311 308 309 309
337 339 335 341 341 339 336 330 328 335 339 329 339 323 327 333 333 332 332 330 326 328 328 325 319 323 328 328 330 329 327 326 326 326 326 324 323 321 317 313 310 308 308 307 306 306 308 311 308 308 308 308
337 336 339 340 339 339 332 335 337 339 338 339 337 334 333 332 333 331 331 330 328 329 322 327 318 321 325 329 328 327 326 325 325 325 325 323 321 317 313 313 313 308 305 302 303 306 311 306 306 307 307 307
335 335 336 337 337 335 337 337 338 339 337 337 336 335 333 332 332 332 331 323 319 322 326 324 318 320 322 324 323 322 324 324 323 323 322 320 316 311 311 309 307 308 307 306 308 308 305 306 307 307 306 306
335 334 334 333 334 334 333 334 333 334 335 335 335 334 333 332 332 332 331 329 327 326 325 325 325 325 325 325 324 319 323 322 321 320 317 314 310 308 307 308 307 307 306 306 306 306 305 305 306 306 306 306
334 333 333 333 333 333 334 334 333 332 333 332 333 333 332 331 331 330 329 328 327 325 324 324 323 323 323 324 323 322 322 321 320 317 315 310 306 305 307 307 307 307 305 305 304 304 307 305 305 306 304 304
334 333 333 334 333 333 332 333 332 332 332 332 333 333 333 330 329 328 327 326 325 324 324 323 322 322 323 323 321 322 321 320 319 316 312 306 306 306 307 307 307 306 307 306 305 304 305 305 304 305 304 305
333 332 332 333 332 332 331 332 332 332 331 333 332 333 332 329 329 327 327 325 324 324 324 323 323 323 321 321 321 320 321 319 316 312 308 306 306 306 306 305 305 304 305 305 305 304 304 304 304 304 303 303
332 332 332 332 332 331 328 331 332 332 332 332 331 332 332 329 328 327 326 325 324 324 322 322 322 322 321 322 321 320 318 315 312 307 305 306 306 305 304 304 303 303 303 303 303 303 304 304 304 304 303 304
331 331 330 330 331 331 330 330 331 332 331 331 330 328 331 329 328 327 326 324 324 322 321 321 321 321 320 320 319 317 314 312 309 305 305 305 304 303 303 302 303 302 303 302 303 303 303 303 302 304 303 304
330 330 330 330 330 331 330 331 331 330 330 330 329 329 329 328 328 327 326 324 323 321 320 319 319 318 318 317 316 314 312 310 307 305 304 304 303 303 302 302 302 301 301 302 302 302 303 303 303 303 303 302
329 329 330 330 330 331 331 331 330 330 330 327 328 328 328 327 327 326 325 324 322 320 319 318 317 316 316 315 314 312 310 307 306 305 305 306 305 305 303 302 301 302 300 300 300 302 303 302 302 301 303 302
328 329 329 329 330 330 331 330 330 329 329 329 328 327 326 326 326 325 324 323 321 318 317 317 315 314 314 313 312 311 309 306 306 305 305 305 305 303 303 301 301 303 301 300 300 300 301 301 302 302 302 302
327 327 329 329 329 329 330 329 328 328 329 328 327 326 325 325 325 324 324 322 320 317 316 315 314 313 312 312 311 309 307 304 303 303 303 303 302 301 301 300 300 299 300 299 299 300 301 301 301 301 301 301
326 327 327 327 328 328 329 328 328 328 327 327 326 325 323 324 324 322 323 321 318 316 315 313 312 312 310 311 309 306 306 304 302 302 301 300 299 299 300 300 298 298 299 298 298 299 299 300 300 301 300 301
324 325 326 327 322 327 328 327 327 326 326 326 325 323 322 322 322 321 321 319 317 315 314 312 310 310 310 309 306 306 305 303 300 300 301 300 301 297 299 299 298 299 298 298 298 299 299 299 299 299 299 300
323 323 324 324 325 325 326 325 325 325 326 325 324 322 321 321 320 319 319 317 316 314 313 311 310 309 309 307 305 304 303 301 301 301 302 299 300 300 299 299 298 299 299 299 299 299 299 300 299 299 299 299
321 322 322 323 323 323 323 324 324 324 324 323 322 322 320 320 319 317 318 316 315 314 312 311 309 308 307 305 304 303 302 301 300 301 301 299 301 299 299 298 297 297 298 299 298 298 298 298 298 299 299 298
320 320 320 321 321 321 321 321 322 322 321 321 321 320 319 318 317 315 316 314 313 312 310 309 307 306 306 304 303 302 301 300 300 301 301 300 299 300 300 298 298 297 298 298 298 298 297 298 298 298 298 297
318 318 317 317 318 317 317 318 318 319 319 319 318 318 317 316 316 315 315 313 312 312 309 307 306 305 304 303 302 301 300 298 299 300 300 300 299 299 299 300 298 299 298 297 296 296 296 297 297 296 297 298
315 314 315 315 315 314 315 315 316 316 317 317 316 316 315 314 313 314 313 312 311 310 308 307 306 304 303 302 301 300 300 300 300 301 300 300 299 299 298 298 299 299 298 295 293 294 295 294 295 295 295 295
314 315 314 314 314 314 314 314 313 313 314 314 315 314 313 313 312 312 310 310 310 309 308 306 305 303 302 300 300 300 300 301 299 300 300 300 297 299 297 297 298 298 296 293 292 291 291 291 292 293 293 293
312 314 315 314 314 314 313 314 314 313 313 313 312 311 310 311 311 310 308 308 308 307 307 306 304 303 301 300 299 299 299 299 299 300 299 298 296 295 297 297 299 297 296 293 295 295 292 289 289 291 291 293
311 313 314 314 313 312 312 311 310 311 310 309 308 307 308 309 309 309 308 307 307 306 306 305 304 302 301 300 299 299 298 298 299 299 299 298 297 296 293 294 295 298 296 296 295 290 291 291 291 289 288 289
309 311 311 310 309 309 308 307 307 306 306 306 306 306 306 306 307 307 307 307 306 305 304 304 303 302 300 299 299 298 298 298 299 298 299 298 297 296 294 293 294 296 296 300 299 296 292 291 290 290 292 289
306 307 307 307 306 304 304 304 304 304 304 305 304 304 306 306 306 306 306 306 305 304 303 303 303 302 300 299 298 298 297 298 298 298 298 298 298 297 297 296 293 294 296 299 302 302 302 300 293 293 292 290
304 305 305 305 305 305 304 304 306 307 307 306 306 306 305 304 304 304 304 305 305 304 303 303 302 302 300 299 298 298 297 297 298 298 298 298 297 297 297 297 293 293 293 297 298 300 299 298 295 300 291 290

ECMWFFLT2_sfc_thetae_021.txt.gz
Theta_e
343 345 346 347 348 347 347 348 348 348 348 349 349 349 349 348 346 345 345 344 343 342 341 340 339 338 338 337 337 336 333 332 332 331 331 331 328 326 325 324 322 319 318 317 316 315 317 318 319 319 316 311
339 342 344 344 345 345 345 346 346 347 347 347 347 346 345 342 342 343 344 343 343 341 340 340 338 337 337 337 336 333 332 331 331 331 330 330 328 326 324 323 321 319 317 315 314 314 315 317 319 318 314 306
338 336 340 341 341 342 342 343 344 345 343 343 343 341 339 337 337 337 338 340 340 339 336 335 335 336 336 337 335 332 331 330 330 330 330 329 327 326 324 322 320 318 316 314 313 313 315 317 315 313 307 304
337 333 333 336 338 338 340 340 341 341 338 338 335 336 334 333 334 330 332 329 333 333 333 331 326 332 335 334 333 333 331 330 330 329 329 327 326 325 323 321 318 315 314 312 312 313 314 313 311 300 300 303
336 336 331 332 332 333 335 336 337 338 333 330 330 330 328 328 333 333 333 331 331 326 328 323 322 331 333 334 334 334 332 330 329 329 328 327 326 325 322 317 314 313 312 311 311 311 313 312 300 299 300 303
338 337 332 335 334 334 333 331 330 334 335 329 334 327 330 331 328 329 330 329 326 326 324 322 321 325 330 333 330 332 332 330 329 329 327 326 325 324 320 315 303 305 313 311 312 310 310 300 298 298 300 302
337 338 335 334 334 333 330 331 332 334 333 333 333 331 330 327 327 327 326 326 324 323 321 321 320 323 327 330 328 329 330 331 329 328 327 326 325 322 316 304 299 297 297 299 309 307 301 298 298 298 299 300
334 335 334 335 334 333 333 332 333 336 335 334 333 330 329 328 326 325 324 322 319 320 319 319 319 322 324 325 324 323 325 328 330 328 326 325 323 317 307 298 298 297 296 295 295 296 299 298 297 297 297 299
332 332 333 334 335 334 333 332 333 335 335 334 333 330 329 327 326 325 324 322 321 319 318 317 318 320 320 319 317 318 314 316 318 319 316 315 311 305 303 300 298 296 294 295 294 297 297 296 295 297 297 299
331 329 332 333 334 334 333 333 333 335 335 333 332 329 327 326 326 325 324 322 320 318 317 316 316 317 316 314 315 316 314 313 313 310 310 309 307 303 301 300 299 298 297 295 295 296 296 296 296 295 295 298
328 328 331 332 333 333 332 333 332 333 334 334 332 328 326 325 324 323 322 320 319 317 317 316 315 315 315 315 314 314 314 312 311 309 308 307 306 303 299 297 297 297 297 295 296 295 296 296 295 295 295 297
328 327 327 330 330 332 330 331 331 332 333 333 332 329 326 324 325 322 319 318 318 317 316 316 315 315 315 314 314 313 314 312 310 308 307 306 305 303 298 297 296 297 296 295 296 296 295 295 295 294 294 296
327 326 326 325 328 330 326 330 330 331 330 331 331 329 327 325 324 322 320 318 318 316 316 315 315 315 315 314 314 312 311 312 310 308 306 305 305 303 298 296 296 296 295 295 295 296 295 294 294 294 294 295
325 325 325 324 325 327 325 328 326 326 327 329 328 327 326 324 325 323 320 318 317 316 315 315 315 314 314 314 314 313 312 311 311 308 304 302 303 300 297 297 297 295 295 294 295 295 295 295 295 294 294 294
326 324 325 325 323 322 323 324 324 324 325 325 326 327 325 323 323 323 320 319 317 316 315 314 314 314 313 313 313 314 312 309 311 307 304 301 299 297 296 295 295 294 294 294 295 295 294 295 294 294 294 294
325 324 322 322 323 322 322 320 322 322 322 321 323 323 324 323 322 321 319 319 317 317 314 313 313 313 312 312 312 313 311 307 307 305 301 298 297 296 295 295 294 294 294 294 295 293 293 293 294 293 293 294
324 323 321 321 322 323 322 322 321 321 322 322 322 322 322 323 322 320 319 318 318 315 315 313 313 312 312 312 311 311 309 305 302 300 298 297 297 295 294 294 294 294 293 293 293 294 293 292 293 293 294 294
321 321 318 319 320 320 322 319 319 319 320 320 320 321 321 322 321 319 318 317 315 315 314 313 312 312 310 310 309 309 305 304 300 298 297 296 295 296 294 293 293 292 292 292 292 292 292 292 292 293 293 293
317 316 317 316 316 318 318 320 319 317 318 317 318 319 318 320 319 318 317 316 316 314 313 312 310 310 310 308 307 306 302 302 298 297 296 295 294 294 292 292 293 292 292 292 293 292 293 293 291 292 294 294
313 315 314 314 315 317 315 316 318 316 318 317 314 316 317 317 318 317 316 315 314 314 312 311 310 308 307 305 305 303 299 299 297 296 296 295 294 292 291 292 291 291 291 291 292 291 291 292 292 292 293 293
313 314 314 315 315 314 314 315 316 315 316 316 316 314 315 315 317 315 314 313 313 312 311 309 310 306 306 304 303 300 298 297 296 296 296 294 293 294 291 291 290 289 291 291 291 289 290 290 292 292 293 292
312 313 313 313 313 313 315 314 314 314 315 315 313 313 313 315 315 315 313 312 311 310 310 309 308 306 305 303 302 300 297 296 294 295 295 294 291 292 291 290 290 290 290 292 291 289 290 290 290 290 291 292
311 311 311 310 311 311 312 312 313 313 313 311 313 312 312 313 314 314 314 311 311 311 308 307 306 305 303 302 300 299 298 296 294 294 294 294 291 290 291 290 290 290 291 292 291 290 290 290 290 290 290 292
308 308 307 308 308 309 308 310 310 311 310 311 311 310 311 310 312 313 314 312 312 311 309 307 306 305 302 301 300 299 297 295 294 294 292 292 292 290 290 289 290 291 291 289 289 289 288 288 289 289 290 290
305 305 305 305 304 303 304 305 306 308 308 308 307 308 309 308 309 311 312 311 310 310 308 307 304 304 302 300 300 299 299 297 295 294 294 292 292 291 289 288 289 291 291 290 287 287 286 287 287 289 289 289
304 303 302 302 301 302 303 304 304 304 304 304 305 305 306 306 306 308 308 308 308 307 306 305 303 302 302 300 300 299 298 296 295 293 292 291 289 290 291 289 290 291 291 287 287 286 285 284 285 286 288 288
300 302 302 302 300 301 300 301 301 301 301 302 302 302 302 302 302 302 302 303 303 305 305 304 302 300 300 300 300 299 297 295 294 293 293 291 292 289 288 289 291 291 292 287 285 284 284 281 283 285 285 285
299 299 300 300 300 300 301 300 299 300 300 300 300 301 300 300 299 299 299 299 299 300 302 303 302 301 299 299 298 299 298 296 295 293 292 292 292 291 289 288 289 291 290 287 288 283 284 281 281 280 283 284
298 298 298 298 299 298 298 299 298 297 297 297 296 297 298 299 298 298 298 297 297 298 299 299 300 300 298 298 297 298 297 296 296 295 294 293 292 290 291 289 288 290 289 288 292 288 282 280 281 282 281 283
297 296 296 296 295 294 294 294 294 294 294 296 295 297 296 297 297 297 296 296 297 296 296 297 297 298 297 297 298 297 297 297 295 295 294 293 293 291 291 290 288 288 291 289 289 287 287 286 284 281 281 282
295 294 294 294 294 293 293 292 293 294 295 294 294 294 296 296 296 296 296 296 294 295 295 295 295 295 296 295 295 296 296 295 295 295 294 294 293 292 292 288 288 288 290 289 288 289 288 288 285 285 284 282

ECMWFFLT2_sfc_thetae_024.txt.gz
Theta_e
343 345 346 347 347 347 347 347 348 348 348 348 348 348 349 348 346 345 345 345 345 344 343 343 342 341 340 340 339 338 336 334 332 332 334 333 329 327 325 323 322 320 318 317 318 319 320 322 321 319 315 313
339 342 344 344 344 345 345 346 346 347 346 347 347 346 345 342 342 343 344 344 344 343 342 342 341 340 340 339 338 337 336 332 331 332 333 331 329 327 325 323 321 319 316 315 317 318 319 320 319 317 315 310
339 336 340 342 342 342 343 343 344 345 343 343 343 341 339 337 337 338 339 341 341 340 338 337 338 339 339 338 336 336 333 332 331 331 332 330 328 326 324 322 319 317 315 314 316 316 317 318 315 313 310 307
340 335 334 337 339 339 340 341 342 341 339 338 335 335 334 332 334 331 334 330 335 335 336 333 331 335 337 337 336 335 332 332 331 331 331 329 328 326 324 322 318 315 313 313 315 314 315 314 309 301 302 304
341 339 332 333 333 335 336 337 338 338 333 331 330 330 329 327 335 335 335 334 336 328 332 326 324 333 336 338 337 335 334 331 331 330 330 328 327 325 323 319 316 314 312 313 314 313 313 309 298 300 302 305
340 340 335 339 338 335 335 332 331 334 336 330 334 327 331 332 332 334 335 335 330 330 328 325 322 326 332 335 331 333 333 331 330 330 329 328 327 325 321 316 300 302 311 314 313 313 312 297 296 297 301 302
338 339 338 340 340 337 331 332 330 334 332 333 333 331 331 330 332 333 334 333 330 328 323 324 321 324 328 332 329 331 331 332 331 330 329 328 326 323 317 303 297 296 294 296 308 304 297 294 295 297 299 300
337 338 338 338 339 338 336 335 333 333 333 332 332 330 329 330 331 332 332 326 321 321 324 322 319 322 325 326 324 325 326 329 331 330 329 327 324 317 305 296 296 295 293 292 292 294 296 295 294 295 297 299
335 336 337 337 337 336 336 335 334 336 336 335 333 332 332 331 329 328 329 327 324 324 322 321 322 323 324 320 315 319 317 319 320 321 317 315 311 302 299 296 294 294 292 293 293 294 296 295 294 295 296 298
332 332 335 336 336 335 335 334 334 335 336 335 334 333 332 330 329 327 326 324 323 322 321 320 320 320 318 314 316 314 315 313 314 313 311 309 306 301 298 296 295 294 293 292 293 294 295 294 294 293 294 296
329 330 333 335 335 335 334 334 334 334 336 335 334 332 331 330 328 326 324 323 322 321 320 320 320 319 316 316 314 312 314 312 311 310 309 308 306 301 298 297 296 295 295 293 293 294 294 294 293 293 294 295
328 327 328 330 331 334 333 332 333 334 335 335 333 331 330 328 329 326 324 323 321 320 319 319 319 318 315 315 313 311 313 312 308 308 307 307 305 302 297 296 295 295 295 293 293 294 293 293 293 293 293 294
327 326 326 326 329 330 327 332 333 333 333 333 332 330 329 327 327 325 324 322 321 319 319 318 317 315 314 313 313 311 310 312 309 307 306 306 306 304 302 295 294 294 294 293 293 294 293 293 292 292 292 293
324 325 325 325 327 328 326 329 330 328 331 332 331 330 329 327 327 325 323 322 319 318 317 315 314 313 312 312 311 311 311 308 309 307 303 303 305 304 300 295 294 294 294 293 293 293 294 293 294 292 293 293
324 323 323 323 324 325 326 326 326 326 327 328 329 330 328 327 327 325 322 321 319 317 316 314 313 312 310 310 310 311 311 308 309 305 306 305 304 304 300 296 293 293 294 293 293 293 293 293 292 292 292 294
322 322 322 319 321 323 324 323 323 324 324 324 326 324 324 324 325 325 322 321 319 318 316 314 313 311 311 311 309 310 310 307 307 306 304 301 301 300 298 295 292 292 293 292 294 292 292 292 292 292 292 293
320 318 317 320 320 320 320 322 321 321 322 324 324 323 323 323 322 321 322 320 319 316 315 313 313 311 311 311 310 310 308 307 303 302 299 298 297 296 294 293 292 292 291 292 292 291 292 291 291 291 291 293
316 316 314 315 316 317 318 319 320 320 321 322 322 321 321 322 321 319 319 318 316 316 314 313 313 312 310 309 309 309 307 306 304 301 299 297 295 296 294 293 291 291 291 291 291 291 290 290 292 292 292 292
312 312 313 313 314 316 317 318 318 318 319 319 320 320 320 320 320 319 318 317 317 314 313 312 311 310 311 308 308 308 305 306 302 301 299 295 296 292 292 291 291 290 291 291 292 292 291 292 290 290 293 292
312 313 312 312 312 314 314 315 315 316 317 317 315 317 318 318 318 318 316 315 315 315 313 312 312 311 308 307 307 306 303 303 301 299 298 295 296 293 291 290 290 289 289 289 291 290 291 291 291 290 290 292
311 312 313 313 313 314 314 314 315 315 314 315 315 314 315 315 316 316 315 315 314 315 313 312 311 309 308 306 307 305 302 302 300 298 298 294 294 295 293 290 289 289 289 289 290 289 289 289 291 291 292 292
308 309 310 311 311 312 313 312 313 313 314 314 313 314 313 313 313 314 314 314 314 314 313 311 311 308 307 307 306 304 301 301 297 297 297 295 292 293 292 290 290 290 288 289 290 288 288 288 289 290 290 291
307 307 308 309 309 309 310 310 310 310 311 311 312 312 312 313 313 312 313 313 313 313 312 311 310 309 307 307 306 304 301 298 295 294 295 296 292 290 290 291 290 290 289 289 289 288 287 287 288 289 289 290
304 305 304 305 306 306 305 307 306 307 308 309 310 310 311 312 312 313 312 311 311 311 310 309 308 309 306 306 305 304 301 299 297 297 295 294 293 290 290 288 288 288 289 287 286 287 288 286 286 288 289 289
301 301 302 302 302 300 301 302 304 304 305 306 306 307 308 308 309 310 310 309 310 310 308 307 306 306 305 304 304 304 304 302 300 298 297 295 293 292 289 288 287 288 289 288 287 286 284 285 285 287 289 288
299 299 297 298 297 298 300 300 301 301 301 301 302 302 303 304 305 306 305 305 307 307 307 306 304 304 304 303 303 302 301 300 298 296 296 294 293 293 292 290 288 290 290 287 285 285 285 284 285 286 287 287
296 297 298 298 297 298 297 297 297 297 297 299 300 300 300 300 301 301 302 302 302 303 304 304 304 302 302 301 301 301 300 299 298 297 296 294 296 293 292 291 290 290 290 287 283 282 283 281 283 285 286 287
295 296 296 296 296 296 296 295 296 297 298 298 300 300 300 299 299 299 299 298 299 299 298 299 301 301 300 299 299 300 300 298 298 297 296 294 294 295 292 290 290 292 291 286 287 283 285 280 281 279 283 286
294 295 295 295 296 296 295 295 294 294 294 294 294 296 296 296 297 298 297 297 297 297 297 296 296 297 297 298 298 299 298 298 298 298 297 296 294 293 294 292 291 291 292 290 290 287 280 280 281 280 279 281
293 293 292 292 292 291 291 290 290 290 290 291 291 291 292 293 294 294 296 296 296 295 295 296 295 293 295 295 295 297 298 297 297 296 295 295 295 294 293 294 292 290 292 292 290 288 285 284 282 281 279 283
291 291 291 290 290 289 289 288 289 289 290 290 291 291 291 291 292 292 292 293 293 294 294 294 294 294 293 292 292 292 294 295 296 296 296 296 295 294 294 292 291 290 291 291 291 290 289 286 284 281 282 281

ECMWFFLT2_sfc_thetae_027.txt.gz
Theta_e
342 344 346 347 347 346 347 347 347 348 348 348 348 348 349 347 347 345 346 346 345 344 344 344 344 344 342 341 341 339 337 336 335 333 337 333 331 328 326 323 321 318 317 319 320 322 322 322 321 319 316 312
338 341 343 344 344 344 344 345 346 346 346 346 346 345 344 342 341 343 344 344 345 344 344 344 343 342 341 341 340 339 337 335 332 336 334 332 330 328 326 323 320 318 316 318 319 320 320 321 320 319 316 309
337 335 339 341 341 342 342 343 343 344 342 341 342 340 338 337 336 337 338 341 342 341 339 338 339 341 342 340 340 338 338 335 333 334 333 332 330 328 325 323 320 317 316 317 317 317 318 318 317 316 311 305
339 333 332 336 338 338 339 340 341 340 338 337 334 335 334 332 332 331 334 330 334 335 336 334 332 337 340 340 339 337 336 333 334 334 332 331 329 327 325 323 319 315 314 315 316 316 316 314 312 303 302 302
341 339 331 331 332 333 335 336 336 337 333 330 330 330 329 327 331 334 336 333 335 329 334 327 326 335 338 339 338 336 337 333 333 333 332 330 329 327 324 321 317 315 313 315 315 314 312 308 300 301 302 303
341 341 334 338 337 334 334 331 330 333 334 329 331 327 330 330 330 332 335 335 332 333 332 327 323 327 334 337 333 334 335 332 333 333 331 330 328 326 323 317 298 299 308 314 313 312 307 296 297 298 299 300
339 340 339 339 339 337 331 331 330 334 333 333 332 330 330 328 329 333 335 336 332 331 325 328 321 325 329 333 330 331 332 334 333 332 331 329 327 325 319 301 296 294 291 291 306 303 296 293 294 296 297 298
338 338 338 339 340 339 337 336 335 335 335 334 333 330 330 329 328 332 334 329 324 324 328 326 320 322 325 327 325 325 327 330 332 331 330 329 325 316 304 295 295 293 290 290 290 293 294 292 293 295 297 298
337 337 337 338 338 338 338 336 336 336 336 335 333 332 333 331 330 331 332 331 329 328 327 325 324 324 323 323 322 321 321 320 317 322 315 312 309 300 299 296 293 292 291 292 291 292 292 293 292 294 296 295
336 335 336 336 337 336 336 336 334 334 337 336 335 334 334 332 330 330 330 328 327 326 325 324 322 322 322 320 320 320 319 314 312 310 309 308 304 299 297 294 292 292 293 290 290 292 292 292 292 292 293 294
334 335 336 336 336 335 334 334 336 336 333 334 335 334 333 332 330 328 327 326 326 325 323 323 322 321 320 320 318 316 318 314 309 307 308 305 304 297 297 296 294 292 292 291 291 292 292 292 292 292 293 293
331 332 333 334 334 335 332 332 331 333 336 334 331 332 332 331 331 329 326 325 324 324 321 321 321 320 318 318 317 314 316 314 307 305 306 305 300 299 296 296 296 293 293 291 290 292 292 292 291 291 292 292
328 327 329 330 332 333 331 333 333 333 332 332 332 331 329 328 329 326 326 325 323 321 321 320 319 318 318 318 316 314 314 313 309 305 305 304 302 299 297 295 295 293 293 292 291 291 292 292 291 291 291 292
324 325 326 328 330 332 331 332 333 329 331 331 331 329 329 329 329 327 326 324 322 321 320 318 317 317 316 316 315 314 314 311 310 307 303 302 303 302 298 296 294 295 292 292 291 290 291 291 292 290 291 291
322 321 323 321 324 328 330 330 331 330 332 331 330 330 329 328 328 327 325 324 322 319 319 318 317 317 316 315 314 314 314 309 309 305 306 306 304 303 300 299 293 293 292 291 292 291 291 292 291 291 291 292
317 317 318 316 320 322 325 325 326 328 329 327 329 328 327 327 327 326 324 323 321 321 319 317 317 316 315 316 314 313 312 309 306 306 302 301 301 300 298 295 292 291 292 290 291 290 291 290 291 291 290 292
313 315 316 317 319 319 319 323 324 325 326 328 328 327 327 326 326 324 325 322 321 318 317 317 315 314 314 315 314 312 309 308 306 304 302 299 298 297 296 295 293 292 290 290 290 289 291 290 291 290 290 292
313 312 314 315 317 317 317 318 319 320 322 323 324 324 325 325 324 323 323 322 320 319 318 317 316 315 314 313 311 309 309 310 307 306 304 300 300 299 298 297 294 292 292 290 289 289 289 289 291 290 290 290
311 311 312 313 315 315 315 315 317 318 318 319 320 321 321 322 322 321 321 320 320 318 317 316 315 314 314 310 309 310 309 311 308 307 305 300 301 294 294 294 292 292 292 290 291 291 290 290 290 288 290 290
311 312 312 312 312 314 314 314 314 314 315 316 316 316 316 317 318 318 318 317 317 316 314 314 313 312 308 308 308 309 307 308 307 305 303 299 300 297 293 292 291 290 290 289 290 289 288 289 290 290 289 290
309 310 310 310 310 310 311 312 313 314 315 315 315 315 314 314 315 315 315 315 315 315 313 312 313 310 308 307 308 307 306 307 306 304 303 297 297 300 298 292 292 289 289 289 289 288 287 287 289 288 290 290
307 308 308 308 308 307 308 309 311 311 311 311 312 312 313 313 313 312 313 313 313 313 312 311 311 309 308 307 307 307 306 306 302 302 303 301 296 297 298 294 293 291 288 289 289 288 287 288 287 287 288 289
304 305 305 305 305 305 305 306 306 307 306 307 307 308 309 310 310 310 312 312 312 311 311 310 309 308 307 307 307 306 305 302 299 299 300 302 297 294 295 295 293 293 291 289 288 288 287 286 286 287 287 288
302 302 301 301 301 301 301 302 302 303 303 303 303 304 305 306 306 307 307 310 310 309 309 308 307 306 306 305 305 305 303 302 301 301 300 299 298 293 292 291 292 291 291 288 287 287 287 285 285 286 287 287
298 298 298 299 298 297 297 298 299 299 300 301 301 301 301 302 302 303 304 305 306 306 306 306 305 305 304 305 304 304 303 302 300 298 298 296 294 294 293 292 290 291 292 292 290 286 286 287 285 287 288 287
296 296 296 296 295 295 295 295 295 294 295 296 296 296 297 298 299 299 299 300 302 303 304 303 302 301 301 302 302 302 302 300 298 298 297 296 295 294 294 293 291 292 292 290 290 289 285 284 285 287 287 287
294 294 294 294 293 294 293 293 293 293 293 293 293 293 293 293 295 296 296 296 296 298 298 299 300 300 299 299 299 299 298 298 298 299 298 296 297 295 292 292 293 293 292 291 287 287 287 285 284 285 284 286
293 294 293 293 293 293 293 292 292 292 292 292 292 291 291 291 291 292 292 293 293 294 295 295 296 296 296 296 295 296 296 295 294 294 295 295 295 296 294 292 292 292 293 290 291 290 288 285 283 284 284 282
292 292 292 292 292 292 291 291 291 290 290 289 290 290 289 289 290 290 290 290 291 291 292 293 293 294 294 294 294 294 294 294 294 294 294 294 294 295 295 295 293 292 292 291 292 292 285 286 286 284 284 281
291 290 290 290 289 288 288 286 287 286 286 287 287 287 288 289 289 289 289 289 289 290 290 291 292 292 292 292 293 293 293 293 293 293 293 293 294 295 295 294 293 292 292 292 292 291 290 290 288 286 285 285
289 288 288 288 287 287 286 285 286 286 287 287 287 288 287 288 288 288 288 288 288 288 289 290 290 291 291 291 291 291 292 292 291 291 292 293 294 294 294 293 291 291 292 292 291 292 291 289 288 287 287 286

ECMWFFLT2_sfc_thetae_030.txt.gz
Theta_e
342 344 346 347 348 347 347 347 348 348 348 348 348 348 348 347 345 345 346 345 345 345 344 344 343 344 342 342 341 340 338 335 335 337 338 334 331 329 327 323 321 319 319 321 323 324 325 324 323 320 316 311
338 340 343 343 344 344 343 345 346 346 346 346 346 344 343 342 341 343 344 344 343 343 343 344 343 343 342 341 341 339 337 336 338 337 335 333 331 329 327 324 320 318 319 320 321 322 324 323 321 319 316 308
338 334 338 340 340 341 341 342 343 344 341 341 341 340 339 337 336 337 339 341 342 340 339 338 339 342 343 341 340 338 337 336 337 335 334 332 331 329 327 323 320 318 318 319 319 320 321 319 317 315 309 304
339 334 331 335 337 337 338 339 340 339 337 337 335 336 334 331 331 332 335 331 335 335 337 335 333 338 341 342 341 337 335 335 336 334 333 332 330 328 326 323 319 316 316 317 317 317 317 315 312 302 301 301
340 339 330 331 331 333 334 335 336 336 332 330 330 330 329 326 331 333 335 333 337 330 335 329 327 335 339 340 338 336 338 335 336 334 333 331 330 328 325 320 317 316 318 317 315 314 312 309 300 299 300 301
341 340 334 338 338 335 335 331 330 333 333 328 329 325 329 330 330 332 333 335 332 334 333 329 324 329 334 337 333 334 336 335 335 334 332 331 329 327 321 314 299 297 305 310 311 310 307 296 295 296 297 298
339 340 339 338 339 338 332 333 331 335 333 332 331 331 332 329 331 332 333 334 333 333 327 330 322 326 330 334 331 331 333 336 335 333 332 330 328 323 315 300 295 291 289 290 302 300 294 292 293 294 295 296
339 339 339 339 339 338 337 337 335 336 336 335 333 333 332 332 331 333 333 329 324 326 330 329 321 324 326 328 326 325 328 330 333 332 331 328 323 312 303 296 294 291 289 290 289 292 291 290 291 292 294 294
337 338 338 338 339 338 337 336 337 337 336 336 335 334 332 331 329 332 333 333 331 331 330 326 326 325 324 323 323 321 323 322 324 321 316 312 306 300 300 296 291 290 288 289 290 291 291 291 290 291 292 292
336 336 337 336 337 338 338 339 338 334 334 336 336 335 335 332 330 329 331 330 329 326 325 327 324 323 324 322 320 322 321 319 318 315 313 310 305 298 296 294 292 292 292 289 289 290 290 290 290 290 291 292
335 335 335 337 336 335 334 332 333 336 335 333 333 335 333 333 332 331 329 326 325 324 323 323 323 324 323 323 321 320 320 316 312 313 312 309 304 297 296 294 292 291 289 289 290 290 290 290 290 290 290 291
333 333 334 334 332 334 332 332 332 331 332 333 331 332 332 331 334 333 330 327 324 326 322 323 323 320 319 319 319 317 319 316 312 311 310 308 302 299 296 296 294 292 290 289 289 291 291 290 290 288 289 289
331 330 331 331 332 332 330 333 334 332 327 329 330 330 327 327 327 327 326 325 327 325 323 322 320 319 318 318 318 317 316 318 315 310 309 308 305 298 297 296 296 294 291 289 289 290 291 290 290 290 290 290
327 327 328 329 331 331 331 332 332 330 329 327 326 328 326 327 327 326 325 323 321 321 320 321 319 318 319 318 315 314 315 313 314 312 308 306 303 301 297 297 295 295 293 291 290 290 291 290 290 289 289 290
324 324 326 326 327 328 330 330 330 329 329 326 325 325 326 326 324 323 321 321 320 320 319 317 317 317 316 316 314 315 315 311 313 310 310 308 306 303 299 298 293 295 295 291 290 290 291 290 289 290 289 290
320 322 321 322 324 326 327 327 329 328 324 325 328 325 323 324 322 320 320 321 319 320 316 315 317 317 315 316 315 314 313 311 309 309 307 306 305 303 301 295 293 291 294 291 289 288 290 289 289 290 290 290
314 315 317 318 319 321 322 324 324 326 325 326 326 325 325 325 324 324 323 322 321 317 318 317 316 315 314 314 314 313 311 310 308 308 307 305 304 302 299 297 295 292 291 291 289 288 289 288 289 289 289 290
314 314 315 316 317 316 318 318 318 317 319 320 321 322 322 323 323 323 324 323 321 320 316 315 315 315 315 315 313 311 309 309 309 308 307 305 305 303 302 300 297 295 295 292 289 289 288 288 288 287 288 289
313 314 314 315 315 315 315 315 315 315 315 315 315 316 316 318 319 319 319 319 319 319 316 314 313 312 311 310 309 309 309 311 309 309 309 305 306 300 300 299 295 294 293 292 294 291 289 289 288 287 288 287
311 311 311 311 311 312 312 311 311 311 311 312 312 312 312 313 313 315 316 316 317 315 314 313 313 311 309 309 310 310 309 309 309 308 307 304 306 303 301 298 299 292 293 291 292 290 289 288 289 288 286 288
307 307 307 307 306 307 307 306 306 307 307 307 308 308 308 309 310 311 312 313 314 314 313 312 311 309 308 308 309 309 307 307 306 307 306 302 301 304 303 298 299 295 291 291 290 288 288 287 288 288 288 288
304 304 304 304 303 303 303 303 303 303 303 303 304 304 304 305 305 307 309 310 310 310 310 310 309 308 309 309 308 307 306 304 303 303 304 303 298 298 301 299 298 298 294 290 290 289 288 288 287 288 287 288
301 301 302 302 301 300 300 300 300 300 300 300 300 300 301 302 302 303 305 307 307 307 307 307 307 307 306 307 307 305 304 302 302 302 302 302 300 296 294 294 295 294 293 292 290 289 289 287 287 288 286 288
299 298 297 297 298 297 297 297 296 297 296 296 297 298 298 298 299 300 300 302 304 304 304 304 303 304 305 305 306 305 304 302 302 302 301 299 299 295 294 292 292 292 293 292 291 290 290 287 286 287 287 287
295 295 294 294 293 292 294 294 294 293 293 293 293 294 295 295 295 296 297 299 299 300 301 301 301 300 301 303 303 303 302 302 300 300 299 298 296 296 294 294 292 294 294 292 292 290 288 288 287 289 288 288
293 293 293 292 291 291 291 290 290 290 290 290 291 291 291 292 293 293 293 295 296 297 298 298 298 298 298 299 300 300 300 299 298 298 297 297 296 294 295 292 291 293 293 291 290 288 287 286 287 286 287 287
292 292 292 292 290 291 290 290 290 289 289 289 289 289 289 289 289 290 290 291 292 293 294 294 295 295 295 294 296 296 296 296 296 296 296 296 295 292 290 289 290 291 292 290 288 289 287 285 285 289 286 284
291 292 291 291 291 290 290 289 290 289 289 288 288 287 288 288 288 289 289 289 290 291 292 292 292 292 292 292 293 293 292 292 292 292 293 294 294 293 291 290 288 290 290 289 290 291 288 285 283 286 287 282
289 290 290 289 289 289 288 288 287 287 286 286 287 286 286 286 287 287 288 288 289 290 290 290 291 291 291 291 291 291 291 290 290 290 290 292 293 293 292 291 291 290 290 290 291 291 287 288 287 286 285 285
289 288 288 288 287 286 285 284 284 283 283 283 284 284 284 285 285 286 286 287 287 288 288 288 289 289 289 290 290 290 290 290 290 290 290 290 291 291 292 291 290 290 291 291 292 291 290 291 288 286 286 286
288 287 286 286 285 284 284 282 283 283 283 283 282 283 283 283 284 284 284 285 285 286 287 287 287 287 288 288 288 289 289 289 289 289 289 289 290 290 291 290 289 289 289 290 291 291 292 290 289 289 286 284

ECMWFFLT2_sfc_thetae_033.txt.gz
Theta_e
342 344 346 347 348 347 347 347 348 348 348 348 348 349 348 347 345 345 347 345 344 343 343 344 343 343 342 342 341 339 338 338 340 339 336 334 331 330 327 324 321 322 323 323 324 326 327 325 323 321 320 325
338 341 344 343 344 344 343 345 346 346 346 346 346 344 343 341 341 342 344 344 343 343 342 342 342 341 341 341 341 339 338 339 339 337 335 333 331 329 327 324 321 321 321 321 323 324 323 322 321 319 318 323
342 334 339 340 340 341 341 342 343 343 341 341 341 340 337 334 335 337 338 341 341 340 339 337 339 341 340 341 340 338 338 339 338 336 334 333 331 329 326 323 320 320 320 320 320 322 321 318 317 315 318 321
345 335 332 336 337 338 339 339 340 340 337 337 335 334 330 328 332 333 338 330 338 336 338 334 336 338 341 340 340 338 339 338 336 335 334 332 331 328 326 322 320 321 320 318 317 318 317 316 313 318 318 319
344 342 330 332 333 333 334 335 336 337 332 329 329 329 324 326 338 341 342 339 343 330 340 329 327 335 339 339 337 338 339 338 336 335 333 332 330 327 322 318 316 315 315 315 315 315 313 310 315 314 316 318
343 343 336 342 341 341 337 332 331 338 343 331 340 325 332 338 337 340 341 340 334 339 337 334 324 329 335 336 334 336 338 338 336 334 333 331 328 324 319 312 311 308 308 311 311 310 308 312 312 312 314 316
342 342 341 340 341 342 333 336 334 342 341 341 338 338 338 336 337 340 342 341 336 337 328 335 322 326 331 333 331 332 336 337 335 334 332 330 326 320 314 312 309 306 305 305 305 303 306 309 310 311 312 313
341 342 342 342 341 340 340 340 338 340 339 337 336 337 338 337 338 340 342 329 324 328 338 335 321 324 326 326 325 325 332 333 334 333 332 328 322 316 311 309 306 303 303 303 304 305 304 305 306 309 310 310
339 340 341 342 342 342 340 338 340 339 338 340 340 338 337 337 336 338 339 338 337 338 339 338 336 332 332 332 331 323 333 334 333 329 326 321 315 313 311 308 304 303 302 302 303 303 303 304 305 306 307 307
337 339 339 339 340 341 342 342 339 339 339 339 340 339 337 336 336 337 336 336 336 336 336 335 332 331 330 332 332 329 328 328 327 323 322 321 317 311 307 305 304 304 302 303 302 302 304 303 304 305 306 307
336 337 338 339 339 338 340 341 340 339 337 337 338 338 336 336 336 334 335 334 335 334 334 333 331 328 327 328 328 327 328 326 324 323 323 322 317 309 307 304 304 304 303 303 305 304 303 303 303 303 304 306
335 335 337 335 336 339 336 333 334 335 336 336 335 334 338 335 335 334 333 333 333 334 333 333 332 331 328 327 324 323 325 323 322 322 321 319 314 311 309 307 306 305 304 303 305 307 305 304 303 303 303 303
333 334 335 334 335 336 332 338 337 337 334 333 330 331 333 333 333 333 332 332 331 329 330 329 328 328 329 328 324 322 323 323 321 320 319 318 315 311 310 308 308 306 304 303 303 304 305 303 303 302 302 302
330 331 332 332 333 334 332 337 338 335 335 331 330 330 329 328 331 332 330 328 326 328 327 326 324 323 324 325 325 324 323 320 320 319 317 315 314 311 308 309 306 306 307 304 303 302 304 303 301 301 301 302
328 329 330 328 330 331 331 333 332 332 332 332 331 328 329 331 330 328 328 326 325 326 326 325 325 325 325 325 323 323 322 318 318 317 318 317 314 311 310 311 304 306 308 305 303 301 303 302 301 301 301 301
322 322 321 321 322 321 321 320 321 321 321 320 323 323 325 326 326 324 326 326 324 324 325 324 324 324 323 322 319 320 319 317 314 315 315 315 314 313 313 308 305 304 308 306 302 301 302 300 301 301 300 301
318 318 318 317 317 317 317 318 317 317 317 317 317 318 319 320 322 324 324 323 322 320 323 322 322 322 321 320 320 320 317 314 313 314 313 311 309 309 310 309 305 303 304 306 302 300 300 300 301 300 300 301
316 316 315 315 315 314 314 314 313 313 313 314 314 315 315 317 317 319 320 321 321 320 319 318 318 318 317 316 315 314 314 314 313 313 314 311 311 309 312 312 309 308 310 307 302 303 300 300 300 299 300 300
311 311 311 310 310 309 310 309 310 310 310 310 311 311 312 313 314 315 317 318 319 317 317 316 315 314 313 313 313 314 313 313 312 312 311 310 312 309 310 308 304 306 306 305 306 303 300 300 299 299 299 299
307 306 305 305 305 304 305 304 304 304 305 305 307 307 308 309 310 312 313 314 316 315 315 314 312 311 311 312 312 312 311 311 310 310 309 308 309 310 308 307 307 303 304 302 303 301 299 299 298 299 299 299
304 304 303 302 301 301 301 301 301 301 301 302 302 302 303 304 305 308 310 310 311 311 311 311 310 310 311 311 311 309 309 307 307 308 307 303 302 305 306 304 304 304 302 301 300 299 299 299 298 299 299 299
302 302 301 300 299 299 297 297 297 297 298 298 298 299 299 301 302 303 305 307 308 308 308 309 309 309 309 310 309 308 307 306 306 306 307 304 301 302 304 303 302 301 300 299 299 299 299 299 298 298 298 299
302 300 299 298 298 297 296 295 295 295 295 295 296 296 297 297 298 300 301 303 304 303 304 305 306 307 308 308 308 307 305 304 305 305 305 306 303 300 299 300 298 297 297 299 298 299 298 297 298 298 297 297
298 298 298 297 296 295 294 294 293 293 293 293 293 294 295 295 296 298 299 300 301 301 301 301 301 302 304 305 305 304 303 303 303 303 302 300 302 301 298 295 296 296 297 297 298 298 298 298 297 297 297 296
297 296 295 294 293 292 292 292 292 292 292 292 292 293 293 294 294 295 296 297 298 298 298 298 298 299 300 301 301 300 300 301 301 302 302 300 298 300 300 297 296 296 295 297 299 299 299 299 297 295 296 296
294 294 293 292 291 291 291 291 290 290 290 290 291 291 291 292 293 294 294 295 296 296 296 296 296 296 297 298 298 297 298 297 297 298 299 301 301 299 297 294 295 296 298 297 293 294 295 297 299 298 295 296
293 294 294 293 292 291 289 290 290 290 290 290 289 289 290 290 291 292 292 293 293 294 294 294 295 294 295 295 296 296 295 296 296 296 297 298 298 298 298 296 297 296 296 293 293 294 293 294 293 299 297 296
293 292 292 292 291 291 291 289 289 289 288 288 288 287 288 288 289 290 290 291 292 292 292 292 293 293 294 294 294 294 294 294 294 294 295 296 296 298 296 296 295 296 295 293 294 294 292 292 290 293 293 291
293 292 291 291 291 291 289 289 288 287 286 286 286 286 286 286 287 288 288 289 289 290 290 291 291 292 292 292 293 293 293 292 292 293 294 295 295 295 296 294 294 295 295 295 295 293 292 292 292 290 290 291
291 291 291 291 289 287 285 284 284 283 283 284 284 284 285 286 286 286 286 287 287 288 288 288 289 290 290 290 291 292 292 292 292 292 292 292 294 294 295 294 294 294 295 295 294 295 294 293 290 288 290 292
289 288 287 286 286 285 284 283 283 284 285 284 284 285 284 284 285 285 285 285 286 286 287 287 287 287 288 288 288 289 290 290 290 291 291 292 292 292 293 294 292 291 292 295 294 294 294 294 293 292 290 289

ECMWFFLT2_sfc_thetae_036.txt.gz
Theta_e
343 344 347 348 348 348 348 348 349 349 348 348 348 348 347 347 345 345 345 344 345 343 342 341 340 341 342 341 340 339 339 339 339 337 335 333 331 329 326 324 323 324 324 324 326 327 325 324 323 323 324 334
337 342 344 344 344 345 345 346 347 347 347 347 346 345 343 341 341 343 345 344 343 343 342 341 341 341 341 341 340 339 339 338 337 335 334 332 330 328 326 324 323 322 322 322 324 324 323 321 322 322 323 330
348 334 340 340 341 342 342 343 344 344 342 342 342 339 337 337 336 337 337 341 341 340 339 337 339 341 342 340 339 340 339 337 337 335 333 332 330 328 326 324 323 322 320 321 321 322 321 321 319 318 324 327
348 337 332 337 337 337 339 340 340 340 337 337 333 331 330 329 336 332 339 328 338 335 336 334 336 339 341 339 338 339 338 338 337 335 333 331 329 327 324 322 320 318 318 317 318 318 318 318 317 322 323 324
347 347 332 334 333 333 334 336 336 337 331 327 324 327 324 327 349 347 344 345 343 329 343 329 326 336 338 338 339 339 338 337 336 335 333 331 328 325 320 317 315 315 315 313 314 315 315 314 318 319 320 321
345 346 338 348 348 347 342 334 332 342 347 337 349 327 338 345 343 343 345 344 338 343 342 337 322 329 335 337 335 337 338 337 335 334 333 330 327 323 319 315 323 316 312 311 312 312 312 314 316 317 317 317
344 345 346 347 345 346 337 342 346 346 347 347 346 346 346 341 343 343 343 344 340 341 330 342 321 326 331 334 333 334 336 336 335 334 333 330 326 322 318 325 322 317 313 312 308 309 311 311 312 315 314 315
343 344 345 345 345 345 346 344 347 347 346 346 347 346 345 344 343 344 344 329 324 332 341 339 322 323 326 327 326 327 333 332 334 334 332 328 324 323 325 327 321 316 312 309 309 310 308 309 311 312 311 311
340 343 344 343 344 345 346 346 345 345 346 346 347 346 345 345 345 345 343 343 342 341 340 341 341 340 338 337 337 326 338 336 336 333 333 329 326 329 328 324 320 317 313 311 309 308 308 309 310 311 311 310
339 340 343 344 343 341 342 342 343 343 344 343 344 342 342 342 342 343 342 343 343 340 341 340 338 337 338 338 337 335 337 337 335 334 333 332 330 328 327 322 320 316 314 312 309 308 308 308 309 309 309 309
339 340 341 341 343 342 343 340 339 342 341 342 345 344 343 342 342 341 341 340 341 342 341 340 338 338 338 338 337 336 336 335 334 332 332 331 330 327 323 320 317 315 311 312 311 309 309 308 308 309 309 309
338 340 340 342 340 338 340 340 341 340 340 341 341 339 339 338 340 340 340 340 339 339 339 339 338 337 337 337 336 334 331 332 331 331 331 332 329 325 323 320 319 317 316 314 314 313 311 310 309 309 308 309
337 340 337 340 341 340 334 338 339 338 338 337 337 337 337 338 338 339 338 338 338 340 339 338 337 336 335 335 335 333 330 328 329 329 330 330 327 327 325 323 322 320 318 318 317 315 313 312 311 310 309 309
335 337 338 337 332 334 335 332 330 331 330 328 329 331 334 334 334 336 337 336 336 334 332 331 330 330 330 333 334 334 331 330 329 329 327 326 325 325 325 325 324 321 321 319 318 316 316 314 311 310 309 309
331 328 327 328 327 327 327 326 326 326 326 325 325 327 329 329 328 331 333 335 335 332 329 329 330 328 329 333 331 331 332 330 328 325 326 325 325 323 324 325 321 322 323 321 319 316 316 313 313 312 312 312
322 322 321 322 323 321 322 324 322 322 322 319 321 324 324 325 326 328 328 329 331 331 328 327 327 327 327 327 326 325 325 323 323 321 319 318 317 320 322 319 319 320 322 321 318 317 314 313 314 314 314 313
319 319 318 317 318 317 317 318 319 319 319 319 319 320 321 322 323 325 327 326 325 324 323 322 322 321 321 321 323 322 321 322 322 320 319 317 316 316 317 320 319 320 320 320 318 317 315 316 315 314 314 313
315 313 313 313 313 314 314 313 313 314 315 315 316 317 318 321 323 323 325 324 322 323 323 321 320 319 318 318 318 319 320 319 318 318 317 316 319 315 317 317 316 318 320 319 319 318 316 316 315 314 313 311
309 309 309 309 308 309 311 310 308 307 310 312 312 313 313 315 317 320 321 320 320 320 320 318 316 316 317 318 319 319 319 319 319 318 316 316 319 317 315 314 312 313 316 316 317 316 315 315 314 313 312 310
306 305 305 305 305 306 307 306 306 304 305 308 308 308 310 311 312 314 316 319 319 318 317 316 315 315 315 316 318 318 317 317 317 316 315 315 318 318 313 312 313 313 314 315 316 315 314 313 312 312 311 310
303 303 302 301 301 301 302 301 302 302 303 303 305 305 305 307 309 311 312 313 315 315 315 315 314 313 314 314 314 312 311 311 314 314 312 310 310 313 311 307 307 307 307 309 311 311 311 311 309 310 309 308
302 302 302 301 300 300 299 299 300 300 301 301 301 303 303 304 306 308 310 310 311 310 310 310 310 310 311 312 311 310 310 310 311 312 312 308 306 308 308 306 304 304 304 307 310 311 310 309 309 308 308 307
303 302 301 301 301 300 299 298 298 299 299 299 300 300 302 303 304 304 307 308 309 309 308 308 308 308 308 309 308 308 308 306 306 307 307 308 304 302 301 301 301 301 304 307 309 309 309 309 308 308 306 305
305 304 302 301 300 299 298 298 297 298 298 298 298 299 300 301 302 303 304 305 306 306 306 307 306 306 307 307 306 305 304 304 304 305 305 304 305 304 303 302 303 303 304 306 309 308 310 309 307 306 304 304
305 304 301 300 299 297 297 297 297 296 296 297 297 298 299 300 300 301 302 302 304 304 303 304 304 305 305 305 305 304 303 304 305 306 307 306 304 304 302 301 303 303 305 306 307 308 308 308 307 305 303 303
301 300 300 299 297 296 296 296 296 295 295 295 296 296 297 298 298 299 299 300 301 301 302 302 302 302 302 303 303 303 303 303 302 304 305 307 305 305 303 300 301 302 304 304 301 301 302 304 306 305 303 303
299 299 299 298 296 295 294 294 295 294 294 294 294 294 295 295 296 297 297 298 298 299 300 300 300 300 300 301 301 301 300 301 301 301 302 303 304 303 303 301 301 301 302 299 301 303 302 301 299 303 301 303
297 297 297 297 296 296 295 293 294 294 294 293 293 292 293 293 294 294 295 296 296 297 297 298 298 299 299 299 300 299 298 298 298 299 300 301 301 303 301 300 299 301 301 300 299 297 298 298 298 297 299 297
296 296 295 295 295 296 295 295 294 293 291 291 291 291 291 291 292 293 293 293 294 294 295 296 296 297 297 297 298 298 297 296 297 297 298 299 299 300 299 298 299 299 299 299 300 298 297 297 297 295 295 297
299 297 296 296 295 294 292 290 290 288 288 289 289 288 290 290 291 291 291 292 292 292 292 293 293 294 294 294 294 295 295 295 295 295 296 297 297 297 298 296 295 296 298 297 298 299 298 297 293 292 293 294
297 296 295 294 293 292 291 288 288 289 289 289 289 290 289 289 290 290 290 290 291 291 291 292 292 292 292 292 292 292 292 291 291 292 293 294 294 295 296 295 292 293 294 293 294 297 297 297 297 297 292 287

ECMWFFLT2_sfc_thetae_042.txt.gz
Theta_e
341 345 346 347 348 347 347 347 346 344 347 347 346 346 345 346 345 343 343 343 343 343 342 342 341 340 340 341 341 340 339 337 335 334 333 332 330 329 326 323 321 322 322 322 322 323 323 326 324 323 323 321
337 341 344 343 344 345 344 345 347 346 347 347 346 345 343 342 341 344 344 343 343 343 343 342 341 341 340 340 339 338 337 335 334 333 333 331 330 328 325 322 320 319 319 319 319 322 323 324 322 322 322 316
337 335 340 341 340 341 343 343 344 344 342 342 342 340 337 335 335 336 338 341 341 339 338 337 339 341 341 339 338 338 337 335 334 333 332 331 329 327 324 321 318 317 317 316 318 319 322 320 320 319 316 313
344 331 334 337 337 338 339 340 340 339 336 334 332 332 331 330 330 329 329 326 332 334 335 333 334 337 339 339 338 337 337 335 334 333 331 330 329 326 323 320 317 315 314 315 315 319 320 318 318 310 309 309
344 338 330 332 331 332 335 334 336 336 327 323 323 324 324 326 338 338 335 332 336 326 334 324 327 336 338 339 339 338 336 335 334 332 331 330 328 326 322 320 317 316 315 314 316 319 316 314 308 308 308 308
342 341 336 341 339 337 333 329 329 333 339 334 337 325 327 336 339 339 339 338 335 335 333 326 325 327 335 338 336 336 336 335 334 332 331 330 328 327 321 318 308 309 315 316 315 313 313 306 305 305 306 306
338 343 343 342 342 341 334 336 336 339 338 339 339 339 340 337 338 336 338 337 337 337 328 329 321 325 331 335 333 334 335 335 334 332 331 330 328 328 325 315 314 311 306 305 310 310 306 304 304 305 305 305
336 336 340 341 340 340 340 341 340 340 338 338 338 339 338 337 336 337 335 326 326 332 333 324 321 324 328 329 328 328 330 332 334 333 331 330 329 324 322 317 314 312 310 307 305 304 302 302 304 303 303 304
333 334 336 336 339 340 338 338 337 338 338 338 338 338 337 337 336 336 336 336 335 336 335 332 331 330 331 331 329 325 331 330 329 327 326 324 320 320 320 317 317 315 313 312 309 307 303 302 301 303 303 304
331 333 333 334 335 337 337 338 337 337 338 335 338 339 336 335 336 336 333 334 333 333 334 334 332 332 332 330 331 330 330 328 328 328 327 326 326 323 321 318 316 315 314 312 309 308 307 304 302 302 302 303
331 331 334 336 335 335 334 337 336 335 335 335 336 336 334 334 334 334 333 333 333 333 332 332 331 332 333 332 331 330 329 329 329 328 326 324 322 321 319 317 315 314 314 312 311 310 310 309 306 303 302 301
330 332 335 335 331 333 329 330 330 331 331 332 331 331 331 330 332 331 330 331 332 332 333 332 332 332 331 330 329 329 328 328 327 325 324 324 323 322 319 317 316 315 315 314 312 312 310 309 308 306 303 302
330 332 332 330 329 328 325 327 326 326 327 328 328 328 329 328 330 332 332 330 331 331 331 330 330 330 329 329 329 330 329 328 326 325 324 324 323 324 322 319 316 315 314 314 314 312 311 309 307 306 306 305
329 329 327 327 328 327 325 325 324 323 323 323 325 326 327 328 328 329 330 332 331 329 327 328 327 326 325 324 325 327 326 326 327 325 324 324 323 322 320 319 318 317 315 314 313 312 311 310 308 307 307 307
323 324 323 323 325 326 324 324 323 322 321 321 323 325 326 326 326 326 326 327 329 328 328 326 325 324 323 322 322 323 324 323 322 320 318 318 319 319 318 317 318 319 317 315 313 311 310 310 311 311 310 308
319 320 319 319 320 320 319 320 320 319 317 316 318 320 323 323 323 323 324 325 325 325 324 323 321 320 320 319 320 321 322 321 320 319 317 318 319 319 318 318 318 319 319 316 314 311 311 310 311 310 309 308
314 315 314 313 314 315 316 315 314 313 313 315 315 316 318 321 321 321 322 321 321 319 320 320 319 319 318 319 320 320 320 320 321 320 318 318 319 318 319 316 315 317 318 318 314 313 312 310 310 309 308 308
310 311 311 310 311 310 310 310 309 309 310 311 312 312 314 316 319 321 321 320 319 318 316 316 316 317 318 318 319 319 320 319 319 318 318 317 317 315 316 313 312 313 313 313 316 314 312 310 310 310 308 306
307 307 308 308 308 307 307 306 305 306 307 307 308 308 310 312 314 316 318 319 318 317 316 314 313 314 315 317 318 317 317 316 315 314 313 313 316 314 313 312 310 310 309 309 311 312 313 312 312 311 309 306
305 305 305 305 306 306 305 304 303 303 304 305 305 305 306 307 309 312 313 314 314 313 313 312 310 311 311 311 312 311 312 313 312 311 310 308 311 310 307 306 305 306 306 308 309 311 312 311 310 309 306 305
304 304 303 303 303 303 303 302 302 302 302 303 304 305 304 305 305 307 310 311 310 310 309 308 308 308 308 308 308 307 307 308 309 307 305 303 304 305 302 302 302 303 307 306 308 308 311 311 309 305 303 303
303 303 303 302 301 301 300 300 301 301 301 301 302 303 303 303 303 304 306 307 308 307 306 306 305 305 306 306 306 306 307 308 309 308 305 303 303 303 302 302 301 301 302 304 306 306 309 309 304 302 302 302
303 303 302 302 301 300 299 299 300 300 300 300 300 301 301 301 302 302 303 304 305 305 304 304 303 303 303 304 303 303 303 303 304 305 305 304 303 304 302 300 300 299 299 301 303 305 306 302 301 301 300 301
304 303 302 300 300 299 298 298 298 298 298 298 299 299 299 299 299 300 300 301 302 302 301 301 301 301 301 301 301 300 300 300 300 301 301 301 300 298 298 297 297 297 297 298 299 302 303 300 300 300 299 299
302 301 300 299 298 296 297 297 296 295 295 295 296 296 296 297 297 297 298 299 299 299 300 299 298 298 298 298 298 298 298 298 298 299 300 299 298 296 293 293 295 295 297 296 295 298 299 299 299 297 298 299
301 300 298 297 296 296 295 294 293 292 293 293 294 294 294 294 294 295 295 296 297 297 297 297 296 296 296 296 296 296 296 295 296 296 296 297 296 295 292 290 292 294 294 292 291 292 295 295 297 295 294 297
299 298 297 297 295 294 293 293 293 293 293 293 292 292 292 292 292 293 293 293 294 294 294 294 293 293 293 292 293 292 292 292 292 292 293 293 293 293 293 290 292 291 291 288 290 293 295 292 292 295 290 291
297 297 296 295 295 294 293 292 292 292 291 291 290 290 290 290 291 291 291 291 291 291 291 291 290 290 290 290 290 289 289 289 289 290 290 291 291 291 291 289 288 290 290 290 289 286 289 291 290 285 285 286
296 295 294 294 294 294 293 292 290 289 288 288 288 288 288 288 289 290 289 290 290 290 290 290 289 289 289 289 289 288 288 288 288 289 289 289 289 289 288 287 287 288 289 288 290 289 285 283 284 283 283 284
296 295 294 293 292 290 288 287 287 286 285 286 286 286 287 288 288 288 288 288 289 289 289 289 289 288 288 288 288 288 288 287 288 288 288 288 287 288 288 286 285 285 287 288 288 289 288 288 283 282 284 281
296 295 295 294 292 290 288 286 286 286 286 286 286 286 286 286 287 287 287 287 287 287 288 287 287 287 287 287 287 287 287 287 286 287 287 288 287 286 288 286 284 284 285 285 286 287 287 287 288 288 283 280

ECMWFFLT2_sfc_thetae_045.txt.gz
Theta_e
342 344 346 347 347 346 346 345 346 347 348 346 347 346 346 345 345 345 344 343 343 343 342 341 341 341 341 341 340 338 336 336 336 334 333 330 327 323 321 321 320 321 323 324 325 325 326 326 323 321 320 319
336 340 344 344 344 344 344 346 346 346 347 347 346 345 343 341 342 343 344 344 343 342 342 342 341 341 341 339 338 337 335 335 334 333 332 329 325 322 319 318 318 319 320 322 323 324 326 323 321 319 318 315
334 334 337 340 340 342 342 342 343 345 342 342 341 338 335 335 336 337 338 341 341 339 338 337 339 340 340 339 338 337 336 335 334 333 331 328 325 321 318 316 317 318 318 320 321 323 322 319 317 315 311 309
338 330 331 335 337 339 340 340 340 338 336 335 332 331 330 329 330 328 330 328 333 334 334 333 332 337 339 339 338 336 335 334 333 332 331 329 326 323 320 317 317 318 319 319 321 322 318 316 313 304 303 303
339 335 330 330 331 332 335 335 336 335 327 324 324 325 324 326 334 334 331 331 333 326 330 324 327 337 338 339 338 337 335 334 332 332 331 329 326 324 321 320 318 317 319 319 320 319 315 311 304 303 301 301
338 336 334 336 337 337 334 329 328 330 333 329 329 322 325 334 335 335 333 334 331 332 327 327 325 327 335 337 335 335 335 333 332 331 330 330 327 324 322 316 305 305 312 316 316 314 311 303 301 302 301 299
332 338 336 335 338 337 330 331 332 335 334 336 335 333 333 333 335 334 335 335 332 333 324 328 321 326 332 335 333 333 335 333 332 331 331 330 329 325 322 311 308 305 303 303 309 306 302 300 300 302 301 300
330 333 337 338 336 336 335 334 335 332 334 333 334 336 334 331 330 332 334 330 326 329 329 324 321 325 328 329 328 327 330 332 333 333 331 330 327 321 317 312 311 309 306 304 304 303 299 299 300 301 301 299
327 328 334 337 338 336 335 335 334 333 334 335 335 332 332 332 332 332 331 331 331 332 330 329 329 329 331 332 331 324 328 326 327 327 325 322 316 315 315 313 313 312 309 308 308 307 304 301 300 300 301 300
327 327 329 331 333 335 334 334 334 335 335 335 334 334 332 331 331 332 331 330 331 331 332 332 331 330 328 327 327 328 327 325 325 327 325 322 320 318 315 314 313 311 310 309 308 308 307 304 301 300 298 299
326 327 331 331 331 332 333 334 332 331 330 330 330 331 330 331 330 329 329 331 331 329 331 331 331 330 330 328 328 326 326 327 327 326 324 322 320 318 316 313 311 311 310 309 310 309 307 305 304 301 300 300
326 329 329 327 327 328 327 328 328 328 328 328 327 327 326 326 328 327 329 329 329 327 328 329 331 330 330 329 328 327 328 327 325 325 324 322 321 319 315 313 311 311 311 310 309 309 307 305 305 303 303 304
329 329 327 326 325 325 323 325 324 324 325 325 325 325 325 325 327 329 329 327 326 326 325 325 325 325 325 325 326 328 326 325 324 323 323 322 320 319 317 315 314 311 311 311 311 309 309 307 306 305 305 304
326 326 326 325 324 323 322 322 322 322 322 323 324 324 325 325 326 328 329 328 327 325 323 322 322 322 322 322 322 323 322 323 322 321 320 320 319 317 317 317 315 312 310 311 310 309 309 308 308 306 304 303
321 322 322 322 322 321 320 319 318 317 317 319 321 323 323 323 323 325 326 326 325 324 322 321 320 320 321 320 320 321 319 319 319 319 319 318 318 318 317 316 315 315 312 310 311 309 309 308 309 307 305 303
316 316 317 316 316 315 315 315 315 314 314 314 316 319 321 321 321 321 321 321 321 321 320 319 319 319 319 319 320 321 320 319 318 318 317 317 317 317 317 316 315 317 315 311 309 311 310 309 309 305 304 303
312 311 311 311 311 311 311 310 310 311 311 311 312 314 317 319 320 320 319 318 317 317 318 318 318 318 318 319 319 319 319 318 318 317 317 317 316 315 314 313 312 314 313 314 312 312 311 311 310 307 305 303
309 309 309 308 308 308 308 307 307 307 308 308 308 310 313 315 316 318 319 317 316 315 313 313 313 313 314 315 316 315 315 314 314 313 314 315 313 310 309 308 308 309 309 310 312 312 312 310 309 305 304 303
307 307 307 306 306 306 306 305 305 306 306 306 306 307 308 311 313 313 314 314 313 312 310 309 309 309 310 310 311 311 311 310 308 307 307 309 307 305 304 304 304 305 306 308 310 311 311 308 306 304 303 302
305 305 305 305 305 304 304 303 303 303 303 304 304 304 305 307 310 311 311 311 310 308 308 308 308 309 309 308 308 308 307 305 304 303 303 303 304 302 301 301 301 302 303 305 307 308 309 304 303 303 303 302
304 303 303 303 302 302 302 301 301 300 300 301 301 301 301 302 303 306 308 307 306 305 305 305 306 307 308 308 308 308 308 306 304 303 302 301 301 301 299 300 299 300 301 303 305 306 303 303 303 302 301 299
302 302 302 301 301 300 299 299 299 299 299 299 299 299 299 300 300 302 303 303 302 302 302 301 301 301 302 303 303 303 304 304 305 304 303 299 299 298 298 296 296 296 297 300 303 303 302 301 300 299 298 296
301 301 300 300 299 298 297 297 297 297 297 297 298 298 297 298 298 299 300 300 300 300 299 299 299 299 299 299 299 299 299 299 299 298 297 295 294 294 293 292 292 293 294 297 300 300 298 298 297 297 296 295
301 300 299 298 297 296 296 296 296 296 296 296 296 296 296 296 297 297 298 298 298 298 297 297 297 296 297 297 296 296 295 295 296 294 292 292 290 289 289 290 290 291 295 298 298 296 296 296 297 296 295 294
301 299 298 297 296 294 294 294 294 294 294 294 294 294 294 294 294 295 295 295 296 295 295 294 294 294 293 293 293 292 292 292 293 294 293 291 290 288 288 288 289 289 293 297 294 294 293 293 293 295 295 294
300 300 298 295 293 293 293 293 292 291 291 292 292 291 291 292 292 292 292 292 292 292 291 290 290 290 290 290 290 290 290 290 291 290 291 291 289 288 287 286 287 289 289 290 290 290 290 289 290 290 290 291
297 297 296 294 292 292 291 291 290 289 289 289 289 289 289 290 290 290 290 290 290 290 289 288 288 288 288 288 289 289 288 288 288 288 288 289 289 286 287 287 288 287 288 286 288 290 290 289 288 290 286 286
295 295 294 294 292 291 290 288 289 288 288 288 288 287 288 288 288 289 288 288 288 288 288 288 287 287 287 287 287 288 287 287 286 287 287 287 287 287 285 284 285 286 286 287 286 287 288 287 283 278 279 283
294 293 292 291 291 290 289 288 287 286 285 286 287 286 286 286 287 288 288 288 288 288 287 287 287 287 286 286 286 287 286 286 286 285 285 286 286 285 283 283 283 285 286 285 287 286 281 279 280 280 280 281
294 292 291 289 288 287 286 285 285 284 284 284 284 285 285 286 286 286 286 286 287 287 286 286 286 285 285 285 285 285 285 285 285 285 285 285 285 285 284 283 282 282 285 285 286 285 285 284 279 280 282 279
293 292 291 290 288 287 286 284 284 284 284 284 284 285 284 285 285 285 285 285 285 285 285 285 285 285 285 284 284 285 284 284 284 284 285 285 285 284 286 284 282 282 282 282 284 285 284 284 285 286 282 281

ECMWFFLT2_sfc_thetae_048.txt.gz
Theta_e
342 344 346 347 347 347 346 347 347 347 347 347 347 346 346 345 344 344 344 344 343 342 342 342 341 340 340 338 338 337 336 335 333 329 325 322 320 321 322 324 324 324 324 325 325 324 324 323 322 320 318 315
337 340 344 344 343 344 344 346 347 347 346 346 346 345 343 341 341 342 343 343 343 342 342 341 341 341 339 337 337 336 335 334 331 328 324 320 320 320 322 322 322 323 322 323 323 322 320 318 317 315 313 308
334 334 338 341 340 341 342 343 344 345 342 342 341 338 336 335 336 337 338 341 341 340 338 337 339 339 338 337 336 335 335 334 332 329 325 322 320 320 321 321 321 321 321 321 321 319 318 314 311 309 304 301
338 330 330 335 337 337 339 340 340 340 337 336 332 330 330 330 331 330 332 329 333 334 335 334 332 337 338 337 336 335 334 333 332 329 327 324 321 319 319 320 320 320 320 320 319 318 316 311 307 297 296 297
338 334 328 331 332 332 334 335 335 335 328 325 324 325 324 326 334 334 332 332 331 326 330 325 327 336 337 337 336 335 333 333 332 330 328 325 323 321 319 318 317 319 320 320 318 316 312 308 298 296 295 296
339 335 333 336 336 335 333 329 326 329 331 329 329 322 326 333 332 333 333 333 331 331 327 326 324 328 334 336 334 334 333 333 332 331 329 327 325 323 322 315 303 305 311 316 314 311 308 301 299 297 295 295
333 337 337 336 337 336 330 331 332 334 331 332 331 330 332 333 334 334 333 332 330 330 324 327 322 326 331 334 332 332 333 332 332 332 331 329 327 323 319 308 305 304 302 303 307 304 301 299 299 298 296 295
330 337 338 336 337 336 335 334 333 334 334 333 333 333 333 334 334 335 333 327 324 326 328 325 323 325 327 328 327 326 328 329 331 331 330 327 322 317 313 309 307 307 306 305 303 300 299 299 299 299 296 296
328 330 335 338 337 336 334 334 333 333 334 333 333 333 332 329 326 327 329 330 330 330 329 329 329 331 332 331 327 323 323 322 321 321 318 316 314 312 312 310 309 309 308 307 306 303 300 299 299 299 298 296
326 326 329 337 337 336 335 334 334 333 333 333 334 333 331 328 328 329 328 329 330 330 331 330 330 331 331 328 326 324 325 324 323 322 321 317 315 313 312 311 309 309 309 308 306 304 303 302 300 299 298 297
326 325 326 333 335 334 333 332 330 329 329 329 329 330 329 328 326 328 328 328 328 330 329 328 327 328 328 327 325 325 326 325 323 323 322 318 316 315 313 311 310 309 308 308 307 305 304 304 303 301 299 299
329 328 328 328 328 329 327 327 327 327 327 327 327 326 326 325 326 327 328 327 327 327 327 327 327 327 327 328 327 325 327 325 323 323 322 320 318 316 314 313 311 310 309 308 308 307 305 304 303 302 301 300
328 328 327 327 326 324 323 325 325 325 326 325 325 326 326 328 328 327 327 326 325 325 324 324 324 325 325 325 326 326 324 323 322 321 321 320 318 317 315 313 311 309 308 308 308 307 306 304 302 301 300 299
327 326 324 323 323 322 321 322 322 323 322 323 323 324 325 327 329 328 327 325 325 323 322 322 322 322 322 322 323 323 322 322 321 320 319 318 318 317 316 313 310 310 309 308 309 308 306 304 303 301 300 299
324 324 322 321 321 320 318 318 318 318 319 320 321 322 323 324 325 326 325 324 323 322 321 321 321 320 321 320 320 321 319 320 320 319 319 318 318 317 315 314 314 312 310 309 311 309 306 303 302 301 300 299
318 318 317 316 316 316 315 315 315 315 316 316 318 320 321 321 322 322 321 321 321 320 320 319 319 319 320 319 319 319 319 318 318 318 317 316 315 315 314 313 314 314 313 312 311 309 306 304 302 301 300 300
313 314 313 312 312 312 313 312 312 312 313 313 315 317 319 320 320 319 319 318 318 318 319 318 318 317 317 317 318 318 317 317 316 315 313 311 310 308 308 310 311 312 312 311 309 307 304 302 301 300 300 300
310 310 310 309 309 309 309 309 309 308 309 310 311 313 315 317 318 317 317 316 315 314 314 313 314 313 313 314 314 313 313 312 311 310 307 304 305 304 304 304 305 308 310 309 307 305 303 302 301 300 299 298
308 308 308 308 307 307 307 306 306 306 306 307 308 310 312 313 313 313 313 313 313 312 311 310 309 308 308 309 308 307 305 304 303 303 303 303 302 302 302 303 304 306 307 307 305 303 302 301 300 298 297 296
307 306 306 306 306 305 304 304 303 303 304 304 305 307 308 309 310 310 309 308 309 310 309 308 307 307 307 306 305 305 303 302 301 300 299 299 302 301 300 301 301 302 304 305 303 302 301 299 297 295 295 294
305 305 304 304 303 302 302 302 301 301 302 302 303 303 304 305 305 306 306 305 305 305 305 305 305 305 306 307 306 305 304 302 301 299 297 296 298 299 298 299 299 299 302 302 301 301 299 296 294 293 292 290
302 302 302 301 301 300 300 299 299 299 300 300 300 301 301 302 303 303 303 302 302 301 300 301 301 302 303 303 302 300 299 298 298 297 295 293 293 293 293 294 296 297 299 300 299 298 296 294 293 290 289 288
301 300 299 299 298 298 297 297 297 297 298 298 298 298 299 300 300 300 300 300 299 299 298 298 299 300 300 299 298 296 294 292 291 291 291 290 289 290 289 290 291 296 297 297 297 296 294 294 292 291 289 288
300 299 298 297 297 296 295 295 295 295 294 294 295 295 296 296 296 297 297 297 297 297 296 296 296 296 297 296 295 293 292 290 289 288 288 287 287 288 289 289 291 295 295 294 294 293 293 292 292 291 290 289
300 298 297 297 296 294 293 293 293 292 292 292 293 293 293 293 294 294 294 294 295 294 294 293 293 293 292 292 292 292 291 290 290 289 288 287 288 289 290 288 287 288 292 293 289 289 288 289 289 291 290 289
300 299 298 296 293 292 293 293 292 290 291 291 292 291 291 291 291 291 291 291 291 291 292 291 291 290 290 290 289 289 289 288 289 288 288 287 286 286 287 285 285 286 289 290 288 287 286 286 287 287 287 287
297 296 295 294 292 292 289 290 290 290 290 291 290 289 289 289 289 289 289 289 289 289 289 289 289 288 288 288 289 288 287 287 286 286 286 286 286 285 285 285 286 285 287 288 286 287 285 283 281 285 283 283
296 295 293 292 292 291 289 288 289 289 290 290 289 287 287 287 287 287 287 287 287 287 287 287 287 287 287 287 287 287 286 285 285 285 285 285 285 285 284 282 284 285 285 286 288 288 286 284 280 280 278 280
294 292 291 290 290 289 288 288 288 288 287 287 287 286 285 285 286 286 286 286 286 287 286 286 286 286 286 286 286 286 285 285 284 284 284 284 284 283 283 282 281 284 284 284 285 285 279 279 278 279 277 277
293 292 290 289 288 287 286 286 286 286 285 285 285 284 283 284 285 285 285 285 285 285 286 285 285 285 285 285 285 286 285 284 284 284 284 283 283 282 282 283 282 281 283 283 284 283 282 280 277 277 279 276
293 292 291 291 290 288 287 286 284 283 284 284 283 284 284 283 284 284 284 283 284 284 284 284 284 284 284 284 284 285 285 284 283 283 283 283 283 283 284 282 281 280 280 280 282 282 282 282 282 281 277 279